Wetterdaten: Donnerstag, 15.01.2026
Datum Zeit Temp. Aussen Temp. o. S. Temp +5cm Feuchte Auss Luftdruck Regen Sonnenschein Regendauer Solar Windböen Empfang
15.01.2026 00:00 7,3 °C 6,7 °C 3,9 °C 100 % 1013,2 hPa 0,0 l/m² 0 min 0 min 0 W/m² 12,9 km/h (3 Bft) 95,65 %
15.01.2026 00:02 7,3 °C 6,7 °C 3,9 °C 100 % 1013,1 hPa 0,0 l/m² 0 min 0 min 0 W/m² 12,9 km/h (3 Bft) 96,88 %
15.01.2026 00:04 7,3 °C 6,7 °C 3,9 °C 100 % 1013,1 hPa 0,0 l/m² 0 min 0 min 0 W/m² 16,1 km/h (3 Bft) 98,31 %
15.01.2026 00:07 7,3 °C 6,7 °C 3,9 °C 100 % 1013,0 hPa 0,0 l/m² 0 min 0 min 0 W/m² 16,1 km/h (3 Bft) 98,31 %
15.01.2026 00:08 7,3 °C 6,7 °C 3,9 °C 100 % 1013,0 hPa 0,0 l/m² 0 min 0 min 0 W/m² 16,1 km/h (3 Bft) 96,63 %
15.01.2026 00:12 7,3 °C 6,7 °C 3,9 °C 100 % 1013,0 hPa 0,0 l/m² 0 min 0 min 0 W/m² 12,9 km/h (3 Bft) 90,91 %
15.01.2026 00:14 7,3 °C 6,7 °C 3,9 °C 100 % 1013,0 hPa 0,0 l/m² 0 min 0 min 0 W/m² 9,7 km/h (2 Bft) 95,65 %
15.01.2026 00:16 7,3 °C 6,7 °C 3,9 °C 100 % 1013,0 hPa 0,0 l/m² 0 min 0 min 0 W/m² 16,1 km/h (3 Bft) 100,00 %
15.01.2026 00:18 7,3 °C 6,7 °C 3,9 °C 100 % 1013,0 hPa 0,0 l/m² 0 min 0 min 0 W/m² 12,9 km/h (3 Bft) 93,33 %
15.01.2026 00:20 7,3 °C 6,7 °C 4,4 °C 100 % 1013,0 hPa 0,0 l/m² 0 min 0 min 0 W/m² 16,1 km/h (3 Bft) 95,74 %
15.01.2026 00:22 7,3 °C 6,7 °C 3,9 °C 100 % 1013,0 hPa 0,0 l/m² 0 min 0 min 0 W/m² 6,4 km/h (2 Bft) 92,31 %
15.01.2026 00:24 7,3 °C 6,7 °C 3,9 °C 100 % 1012,9 hPa 0,0 l/m² 0 min 0 min 0 W/m² 12,9 km/h (3 Bft) 96,61 %
15.01.2026 00:26 7,3 °C 6,7 °C 4,4 °C 100 % 1012,9 hPa 0,0 l/m² 0 min 0 min 0 W/m² 16,1 km/h (3 Bft) 94,83 %
15.01.2026 00:28 7,3 °C 6,7 °C 4,4 °C 100 % 1012,9 hPa 0,0 l/m² 0 min 0 min 0 W/m² 12,9 km/h (3 Bft) 95,74 %
15.01.2026 00:30 7,3 °C 6,7 °C 4,4 °C 100 % 1012,8 hPa 0,0 l/m² 0 min 0 min 0 W/m² 12,9 km/h (3 Bft) 89,36 %
15.01.2026 00:32 7,3 °C 6,7 °C 4,4 °C 100 % 1012,9 hPa 0,0 l/m² 0 min 0 min 0 W/m² 12,9 km/h (3 Bft) 95,74 %
15.01.2026 00:34 7,3 °C 6,7 °C 4,4 °C 100 % 1012,9 hPa 0,0 l/m² 0 min 0 min 0 W/m² 6,4 km/h (2 Bft) 95,74 %
15.01.2026 00:36 7,3 °C 6,7 °C 4,4 °C 100 % 1012,9 hPa 0,0 l/m² 0 min 0 min 0 W/m² 9,7 km/h (2 Bft) 95,56 %
15.01.2026 00:38 7,3 °C 6,7 °C 4,4 °C 100 % 1012,9 hPa 0,0 l/m² 0 min 0 min 0 W/m² 16,1 km/h (3 Bft) 93,48 %
15.01.2026 00:40 7,3 °C 6,7 °C 4,4 °C 100 % 1012,9 hPa 0,0 l/m² 0 min 0 min 0 W/m² 12,9 km/h (3 Bft) 95,65 %
15.01.2026 00:42 7,3 °C 6,7 °C 4,4 °C 100 % 1012,9 hPa 0,0 l/m² 0 min 0 min 0 W/m² 12,9 km/h (3 Bft) 95,65 %
15.01.2026 00:44 7,3 °C 6,7 °C 4,4 °C 100 % 1012,8 hPa 0,0 l/m² 0 min 0 min 0 W/m² 12,9 km/h (3 Bft) 95,83 %
15.01.2026 00:48 7,3 °C 6,7 °C 4,4 °C 100 % 1012,9 hPa 0,0 l/m² 0 min 0 min 0 W/m² 19,3 km/h (3 Bft) 92,47 %
15.01.2026 00:50 7,4 °C 6,7 °C 4,4 °C 100 % 1012,9 hPa 0,0 l/m² 0 min 0 min 0 W/m² 12,9 km/h (3 Bft) 93,48 %
15.01.2026 00:52 7,3 °C 6,7 °C 3,9 °C 100 % 1013,0 hPa 0,0 l/m² 0 min 0 min 0 W/m² 16,1 km/h (3 Bft) 93,48 %
15.01.2026 00:54 7,3 °C 6,7 °C 3,9 °C 100 % 1012,8 hPa 0,0 l/m² 0 min 0 min 0 W/m² 9,7 km/h (2 Bft) 95,00 %
15.01.2026 00:56 7,3 °C 6,7 °C 4,4 °C 100 % 1012,9 hPa 0,0 l/m² 0 min 0 min 0 W/m² 12,9 km/h (3 Bft) 93,62 %
15.01.2026 00:58 7,3 °C 6,7 °C 3,9 °C 100 % 1012,8 hPa 0,0 l/m² 0 min 0 min 0 W/m² 19,3 km/h (3 Bft) 96,23 %
15.01.2026 01:00 7,3 °C 6,7 °C 3,9 °C 100 % 1012,8 hPa 0,0 l/m² 0 min 0 min 0 W/m² 12,9 km/h (3 Bft) 92,68 %
15.01.2026 01:02 7,3 °C 6,7 °C 3,9 °C 100 % 1012,8 hPa 0,0 l/m² 0 min 0 min 0 W/m² 12,9 km/h (3 Bft) 96,49 %
15.01.2026 01:04 7,3 °C 6,7 °C 3,9 °C 100 % 1012,8 hPa 0,0 l/m² 0 min 0 min 0 W/m² 12,9 km/h (3 Bft) 100,00 %
15.01.2026 01:06 7,3 °C 6,7 °C 3,9 °C 100 % 1012,8 hPa 0,0 l/m² 0 min 0 min 0 W/m² 9,7 km/h (2 Bft) 97,83 %
15.01.2026 01:08 7,3 °C 6,7 °C 3,9 °C 100 % 1012,8 hPa 0,0 l/m² 0 min 0 min 0 W/m² 12,9 km/h (3 Bft) 98,00 %
15.01.2026 01:10 7,3 °C 6,7 °C 3,9 °C 100 % 1012,7 hPa 0,0 l/m² 0 min 0 min 0 W/m² 16,1 km/h (3 Bft) 95,65 %
15.01.2026 01:12 7,3 °C 6,7 °C 3,9 °C 99 % 1012,8 hPa 0,0 l/m² 0 min 0 min 0 W/m² 6,4 km/h (2 Bft) 100,00 %
15.01.2026 01:14 7,3 °C 6,7 °C 3,9 °C 99 % 1012,8 hPa 0,0 l/m² 0 min 0 min 0 W/m² 12,9 km/h (3 Bft) 100,00 %
15.01.2026 01:16 7,3 °C 6,7 °C 3,9 °C 100 % 1012,8 hPa 0,0 l/m² 0 min 0 min 0 W/m² 9,7 km/h (2 Bft) 100,00 %
15.01.2026 01:18 7,3 °C 6,7 °C 3,9 °C 99 % 1012,7 hPa 0,0 l/m² 0 min 0 min 0 W/m² 12,9 km/h (3 Bft) 97,87 %
15.01.2026 01:20 7,3 °C 6,7 °C 3,9 °C 99 % 1012,8 hPa 0,0 l/m² 0 min 0 min 0 W/m² 6,4 km/h (2 Bft) 97,83 %
15.01.2026 01:22 7,3 °C 6,7 °C 3,9 °C 99 % 1012,7 hPa 0,0 l/m² 0 min 0 min 0 W/m² 12,9 km/h (3 Bft) 100,00 %
15.01.2026 01:24 7,3 °C 6,7 °C 3,9 °C 99 % 1012,7 hPa 0,0 l/m² 0 min 0 min 0 W/m² 9,7 km/h (2 Bft) 100,00 %
15.01.2026 01:26 7,3 °C 6,7 °C 3,9 °C 99 % 1012,6 hPa 0,0 l/m² 0 min 0 min 0 W/m² 12,9 km/h (3 Bft) 95,74 %
15.01.2026 01:28 7,3 °C 6,7 °C 4,4 °C 99 % 1012,7 hPa 0,0 l/m² 0 min 0 min 0 W/m² 19,3 km/h (3 Bft) 97,83 %
15.01.2026 01:30 7,3 °C 6,7 °C 4,4 °C 99 % 1012,6 hPa 0,0 l/m² 0 min 0 min 0 W/m² 9,7 km/h (2 Bft) 95,74 %
15.01.2026 01:32 7,3 °C 6,7 °C 4,4 °C 99 % 1012,6 hPa 0,0 l/m² 0 min 0 min 0 W/m² 9,7 km/h (2 Bft) 95,74 %
15.01.2026 01:34 7,3 °C 7,2 °C 4,4 °C 100 % 1012,6 hPa 0,0 l/m² 0 min 0 min 0 W/m² 12,9 km/h (3 Bft) 97,87 %
15.01.2026 01:36 7,3 °C 7,2 °C 4,4 °C 100 % 1012,6 hPa 0,0 l/m² 0 min 0 min 0 W/m² 6,4 km/h (2 Bft) 95,74 %
15.01.2026 01:38 7,3 °C 6,7 °C 4,4 °C 100 % 1012,6 hPa 0,0 l/m² 0 min 0 min 0 W/m² 12,9 km/h (3 Bft) 97,83 %
15.01.2026 01:40 7,3 °C 7,2 °C 4,4 °C 100 % 1012,6 hPa 0,0 l/m² 0 min 0 min 0 W/m² 6,4 km/h (2 Bft) 97,87 %
15.01.2026 01:42 7,3 °C 7,2 °C 4,4 °C 100 % 1012,5 hPa 0,0 l/m² 0 min 0 min 0 W/m² 12,9 km/h (3 Bft) 95,74 %
15.01.2026 01:44 7,3 °C 7,2 °C 4,4 °C 100 % 1012,5 hPa 0,0 l/m² 0 min 0 min 0 W/m² 6,4 km/h (2 Bft) 97,87 %
15.01.2026 01:46 7,3 °C 7,2 °C 4,4 °C 100 % 1012,4 hPa 0,0 l/m² 0 min 0 min 0 W/m² 12,9 km/h (3 Bft) 98,31 %
15.01.2026 01:48 7,3 °C 7,2 °C 4,4 °C 100 % 1012,4 hPa 0,0 l/m² 0 min 0 min 0 W/m² 6,4 km/h (2 Bft) 97,14 %
15.01.2026 01:50 7,3 °C 7,2 °C 4,4 °C 100 % 1012,4 hPa 0,0 l/m² 0 min 0 min 0 W/m² 9,7 km/h (2 Bft) 97,83 %
15.01.2026 01:52 7,4 °C 7,2 °C 4,4 °C 100 % 1012,5 hPa 0,0 l/m² 0 min 0 min 0 W/m² 16,1 km/h (3 Bft) 95,74 %
15.01.2026 01:54 7,4 °C 7,2 °C 4,4 °C 100 % 1012,5 hPa 0,0 l/m² 0 min 0 min 0 W/m² 12,9 km/h (3 Bft) 97,87 %
15.01.2026 01:56 7,4 °C 7,2 °C 4,4 °C 100 % 1012,4 hPa 0,0 l/m² 0 min 0 min 0 W/m² 12,9 km/h (3 Bft) 100,00 %
15.01.2026 01:58 7,4 °C 7,2 °C 4,4 °C 100 % 1012,4 hPa 0,0 l/m² 0 min 0 min 0 W/m² 12,9 km/h (3 Bft) 100,00 %
15.01.2026 02:00 7,4 °C 7,2 °C 4,4 °C 100 % 1012,4 hPa 0,0 l/m² 0 min 0 min 0 W/m² 6,4 km/h (2 Bft) 97,87 %
15.01.2026 02:02 7,4 °C 7,2 °C 4,4 °C 100 % 1012,4 hPa 0,0 l/m² 0 min 0 min 0 W/m² 12,9 km/h (3 Bft) 93,48 %
15.01.2026 02:04 7,4 °C 7,2 °C 4,4 °C 100 % 1012,4 hPa 0,0 l/m² 0 min 0 min 0 W/m² 6,4 km/h (2 Bft) 100,00 %
15.01.2026 02:06 7,4 °C 7,2 °C 4,4 °C 100 % 1012,3 hPa 0,0 l/m² 0 min 0 min 0 W/m² 12,9 km/h (3 Bft) 100,00 %
15.01.2026 02:08 7,4 °C 7,2 °C 4,4 °C 100 % 1012,3 hPa 0,0 l/m² 0 min 0 min 0 W/m² 6,4 km/h (2 Bft) 100,00 %
15.01.2026 02:10 7,5 °C 7,2 °C 4,4 °C 100 % 1012,3 hPa 0,0 l/m² 0 min 0 min 0 W/m² 19,3 km/h (3 Bft) 100,00 %
15.01.2026 02:14 7,5 °C 7,2 °C 4,4 °C 100 % 1012,2 hPa 0,0 l/m² 0 min 0 min 0 W/m² 16,1 km/h (3 Bft) 100,00 %
15.01.2026 02:16 7,5 °C 7,2 °C 4,4 °C 100 % 1012,2 hPa 0,0 l/m² 0 min 0 min 0 W/m² 3,2 km/h (1 Bft) 100,00 %
15.01.2026 02:18 7,5 °C 7,2 °C 4,4 °C 100 % 1012,2 hPa 0,0 l/m² 0 min 0 min 0 W/m² 6,4 km/h (2 Bft) 100,00 %
15.01.2026 02:20 7,5 °C 7,2 °C 4,4 °C 100 % 1012,2 hPa 0,0 l/m² 0 min 0 min 0 W/m² 16,1 km/h (3 Bft) 97,73 %
15.01.2026 02:22 7,5 °C 7,2 °C 4,4 °C 100 % 1012,2 hPa 0,0 l/m² 0 min 0 min 0 W/m² 12,9 km/h (3 Bft) 95,65 %
15.01.2026 02:24 7,5 °C 7,2 °C 4,4 °C 100 % 1012,2 hPa 0,0 l/m² 0 min 0 min 0 W/m² 6,4 km/h (2 Bft) 100,00 %
15.01.2026 02:26 7,5 °C 7,2 °C 4,4 °C 100 % 1012,2 hPa 0,0 l/m² 0 min 0 min 0 W/m² 12,9 km/h (3 Bft) 100,00 %
15.01.2026 02:28 7,5 °C 7,2 °C 4,4 °C 100 % 1012,2 hPa 0,0 l/m² 0 min 0 min 0 W/m² 12,9 km/h (3 Bft) 100,00 %
15.01.2026 02:30 7,5 °C 7,2 °C 4,4 °C 100 % 1012,2 hPa 0,0 l/m² 0 min 0 min 0 W/m² 6,4 km/h (2 Bft) 100,00 %
15.01.2026 02:32 7,5 °C 7,2 °C 4,4 °C 100 % 1012,2 hPa 0,0 l/m² 0 min 0 min 0 W/m² 3,2 km/h (1 Bft) 100,00 %
15.01.2026 02:34 7,5 °C 7,2 °C 4,4 °C 100 % 1012,2 hPa 0,0 l/m² 0 min 0 min 0 W/m² 12,9 km/h (3 Bft) 100,00 %
15.01.2026 02:36 7,5 °C 7,2 °C 4,4 °C 100 % 1012,1 hPa 0,0 l/m² 0 min 0 min 0 W/m² 16,1 km/h (3 Bft) 95,65 %
15.01.2026 02:38 7,6 °C 7,2 °C 4,4 °C 100 % 1012,1 hPa 0,0 l/m² 0 min 0 min 0 W/m² 16,1 km/h (3 Bft) 100,00 %
15.01.2026 02:40 7,6 °C 7,2 °C 4,4 °C 100 % 1012,1 hPa 0,0 l/m² 0 min 0 min 0 W/m² 12,9 km/h (3 Bft) 100,00 %
15.01.2026 02:42 7,6 °C 7,2 °C 4,4 °C 100 % 1012,1 hPa 0,0 l/m² 0 min 0 min 0 W/m² 12,9 km/h (3 Bft) 100,00 %
15.01.2026 02:44 7,6 °C 7,2 °C 4,4 °C 100 % 1012,1 hPa 0,0 l/m² 0 min 0 min 0 W/m² 9,7 km/h (2 Bft) 100,00 %
15.01.2026 02:46 7,6 °C 7,2 °C 4,4 °C 100 % 1012,1 hPa 0,0 l/m² 0 min 0 min 0 W/m² 12,9 km/h (3 Bft) 95,65 %
15.01.2026 02:48 7,6 °C 7,2 °C 4,4 °C 100 % 1012,1 hPa 0,0 l/m² 0 min 0 min 0 W/m² 6,4 km/h (2 Bft) 95,74 %
15.01.2026 02:50 7,6 °C 7,2 °C 4,4 °C 100 % 1012,1 hPa 0,0 l/m² 0 min 0 min 0 W/m² 19,3 km/h (3 Bft) 95,74 %
15.01.2026 02:52 7,6 °C 7,2 °C 4,4 °C 100 % 1012,1 hPa 0,0 l/m² 0 min 0 min 0 W/m² 16,1 km/h (3 Bft) 100,00 %
15.01.2026 02:54 7,6 °C 7,2 °C 4,4 °C 100 % 1012,1 hPa 0,0 l/m² 0 min 0 min 0 W/m² 9,7 km/h (2 Bft) 97,78 %
15.01.2026 02:56 7,6 °C 7,2 °C 4,4 °C 100 % 1012,2 hPa 0,0 l/m² 0 min 0 min 0 W/m² 19,3 km/h (3 Bft) 95,65 %
15.01.2026 02:58 7,6 °C 7,2 °C 4,4 °C 100 % 1012,1 hPa 0,0 l/m² 0 min 0 min 0 W/m² 9,7 km/h (2 Bft) 97,92 %
15.01.2026 03:00 7,6 °C 7,2 °C 4,4 °C 100 % 1012,0 hPa 0,0 l/m² 0 min 0 min 0 W/m² 6,4 km/h (2 Bft) 97,92 %
15.01.2026 03:02 7,6 °C 7,2 °C 4,4 °C 100 % 1012,1 hPa 0,0 l/m² 0 min 0 min 0 W/m² 12,9 km/h (3 Bft) 95,56 %
15.01.2026 03:04 7,6 °C 7,2 °C 4,4 °C 100 % 1012,1 hPa 0,0 l/m² 0 min 0 min 0 W/m² 12,9 km/h (3 Bft) 97,78 %
15.01.2026 03:06 7,6 °C 7,2 °C 4,4 °C 100 % 1012,0 hPa 0,0 l/m² 0 min 0 min 0 W/m² 16,1 km/h (3 Bft) 98,28 %
15.01.2026 03:08 7,6 °C 7,2 °C 4,4 °C 100 % 1012,0 hPa 0,0 l/m² 0 min 0 min 0 W/m² 12,9 km/h (3 Bft) 95,00 %
15.01.2026 03:10 7,6 °C 7,2 °C 4,4 °C 100 % 1012,0 hPa 0,0 l/m² 0 min 0 min 0 W/m² 19,3 km/h (3 Bft) 95,74 %
15.01.2026 03:12 7,6 °C 7,2 °C 4,4 °C 100 % 1012,0 hPa 0,0 l/m² 0 min 0 min 0 W/m² 19,3 km/h (3 Bft) 93,62 %
15.01.2026 03:14 7,6 °C 7,2 °C 4,4 °C 100 % 1012,0 hPa 0,0 l/m² 0 min 0 min 0 W/m² 12,9 km/h (3 Bft) 95,65 %
15.01.2026 03:16 7,7 °C 7,2 °C 4,4 °C 100 % 1012,0 hPa 0,0 l/m² 0 min 0 min 0 W/m² 12,9 km/h (3 Bft) 91,11 %
15.01.2026 03:18 7,7 °C 7,2 °C 4,4 °C 100 % 1012,0 hPa 0,0 l/m² 0 min 0 min 0 W/m² 12,9 km/h (3 Bft) 91,49 %
15.01.2026 03:20 7,7 °C 7,2 °C 4,4 °C 100 % 1012,0 hPa 0,0 l/m² 0 min 0 min 0 W/m² 12,9 km/h (3 Bft) 93,88 %
15.01.2026 03:22 7,7 °C 7,2 °C 4,4 °C 100 % 1012,0 hPa 0,0 l/m² 0 min 0 min 0 W/m² 19,3 km/h (3 Bft) 93,62 %
15.01.2026 03:24 7,7 °C 7,2 °C 4,4 °C 100 % 1012,0 hPa 0,0 l/m² 0 min 0 min 0 W/m² 16,1 km/h (3 Bft) 91,49 %
15.01.2026 03:26 7,7 °C 7,2 °C 4,4 °C 100 % 1011,9 hPa 0,0 l/m² 0 min 0 min 0 W/m² 16,1 km/h (3 Bft) 93,62 %
15.01.2026 03:28 7,7 °C 7,2 °C 4,4 °C 100 % 1012,0 hPa 0,0 l/m² 0 min 0 min 0 W/m² 16,1 km/h (3 Bft) 93,62 %
15.01.2026 03:30 7,7 °C 7,2 °C 4,4 °C 100 % 1012,0 hPa 0,0 l/m² 0 min 0 min 0 W/m² 19,3 km/h (3 Bft) 93,62 %
15.01.2026 03:32 7,7 °C 7,2 °C 4,4 °C 100 % 1012,0 hPa 0,0 l/m² 0 min 0 min 0 W/m² 12,9 km/h (3 Bft) 93,48 %
15.01.2026 03:34 7,7 °C 7,2 °C 4,4 °C 100 % 1012,0 hPa 0,0 l/m² 0 min 0 min 0 W/m² 19,3 km/h (3 Bft) 93,62 %
15.01.2026 03:36 7,7 °C 7,2 °C 4,4 °C 100 % 1012,0 hPa 0,0 l/m² 0 min 0 min 0 W/m² 9,7 km/h (2 Bft) 91,43 %
15.01.2026 03:38 7,7 °C 7,2 °C 4,4 °C 100 % 1012,0 hPa 0,0 l/m² 0 min 0 min 0 W/m² 19,3 km/h (3 Bft) 93,62 %
15.01.2026 03:40 7,8 °C 7,2 °C 4,4 °C 100 % 1012,0 hPa 0,0 l/m² 0 min 0 min 0 W/m² 12,9 km/h (3 Bft) 93,62 %
15.01.2026 03:42 7,8 °C 7,2 °C 4,4 °C 100 % 1011,9 hPa 0,0 l/m² 0 min 0 min 0 W/m² 12,9 km/h (3 Bft) 93,22 %
15.01.2026 03:44 7,8 °C 7,2 °C 4,4 °C 100 % 1011,9 hPa 0,0 l/m² 0 min 0 min 0 W/m² 12,9 km/h (3 Bft) 100,00 %
15.01.2026 03:46 7,8 °C 7,2 °C 4,4 °C 100 % 1011,8 hPa 0,0 l/m² 0 min 0 min 0 W/m² 16,1 km/h (3 Bft) 91,30 %
15.01.2026 03:48 7,8 °C 7,2 °C 4,4 °C 100 % 1011,9 hPa 0,0 l/m² 0 min 0 min 0 W/m² 19,3 km/h (3 Bft) 97,92 %
15.01.2026 03:50 7,8 °C 7,2 °C 4,4 °C 100 % 1011,8 hPa 0,0 l/m² 0 min 0 min 0 W/m² 16,1 km/h (3 Bft) 97,83 %
15.01.2026 03:52 7,8 °C 7,2 °C 4,4 °C 100 % 1011,7 hPa 0,0 l/m² 0 min 0 min 0 W/m² 16,1 km/h (3 Bft) 97,73 %
15.01.2026 03:54 7,8 °C 7,2 °C 4,4 °C 100 % 1011,7 hPa 0,0 l/m² 0 min 0 min 0 W/m² 19,3 km/h (3 Bft) 97,83 %
15.01.2026 03:56 7,8 °C 7,2 °C 4,4 °C 100 % 1011,7 hPa 0,0 l/m² 0 min 0 min 0 W/m² 16,1 km/h (3 Bft) 95,65 %
15.01.2026 03:58 7,8 °C 7,2 °C 4,4 °C 100 % 1011,6 hPa 0,0 l/m² 0 min 0 min 0 W/m² 12,9 km/h (3 Bft) 97,50 %
15.01.2026 04:00 7,8 °C 7,2 °C 4,4 °C 100 % 1011,6 hPa 0,0 l/m² 0 min 0 min 0 W/m² 12,9 km/h (3 Bft) 97,87 %
15.01.2026 04:02 7,8 °C 7,2 °C 4,4 °C 100 % 1011,6 hPa 0,0 l/m² 0 min 0 min 0 W/m² 16,1 km/h (3 Bft) 100,00 %
15.01.2026 04:04 7,8 °C 7,2 °C 4,4 °C 100 % 1011,6 hPa 0,0 l/m² 0 min 0 min 0 W/m² 19,3 km/h (3 Bft) 100,00 %
15.01.2026 04:06 7,8 °C 7,2 °C 4,4 °C 100 % 1011,7 hPa 0,0 l/m² 0 min 0 min 0 W/m² 16,1 km/h (3 Bft) 100,00 %
15.01.2026 04:08 7,8 °C 7,2 °C 4,4 °C 100 % 1011,6 hPa 0,0 l/m² 0 min 0 min 0 W/m² 12,9 km/h (3 Bft) 97,22 %
15.01.2026 04:10 7,8 °C 7,2 °C 4,4 °C 100 % 1011,6 hPa 0,0 l/m² 0 min 0 min 0 W/m² 16,1 km/h (3 Bft) 100,00 %
15.01.2026 04:12 7,8 °C 7,2 °C 4,4 °C 100 % 1011,6 hPa 0,0 l/m² 0 min 0 min 0 W/m² 19,3 km/h (3 Bft) 100,00 %
15.01.2026 04:14 7,8 °C 7,2 °C 4,4 °C 100 % 1011,6 hPa 0,0 l/m² 0 min 0 min 0 W/m² 12,9 km/h (3 Bft) 97,87 %
15.01.2026 04:16 7,8 °C 7,2 °C 4,4 °C 100 % 1011,6 hPa 0,0 l/m² 0 min 0 min 0 W/m² 12,9 km/h (3 Bft) 97,83 %
15.01.2026 04:18 7,8 °C 7,2 °C 4,4 °C 100 % 1011,7 hPa 0,0 l/m² 0 min 0 min 0 W/m² 12,9 km/h (3 Bft) 100,00 %
15.01.2026 04:20 7,8 °C 7,2 °C 4,4 °C 100 % 1011,7 hPa 0,0 l/m² 0 min 0 min 0 W/m² 12,9 km/h (3 Bft) 100,00 %
15.01.2026 04:22 7,8 °C 7,2 °C 4,4 °C 100 % 1011,6 hPa 0,0 l/m² 0 min 0 min 0 W/m² 16,1 km/h (3 Bft) 100,00 %
15.01.2026 04:24 7,8 °C 7,2 °C 4,4 °C 100 % 1011,6 hPa 0,0 l/m² 0 min 0 min 0 W/m² 16,1 km/h (3 Bft) 100,00 %
15.01.2026 04:26 7,8 °C 7,2 °C 4,4 °C 100 % 1011,6 hPa 0,0 l/m² 0 min 0 min 0 W/m² 12,9 km/h (3 Bft) 100,00 %
15.01.2026 04:28 7,8 °C 7,2 °C 4,4 °C 100 % 1011,6 hPa 0,0 l/m² 0 min 0 min 0 W/m² 12,9 km/h (3 Bft) 100,00 %
15.01.2026 04:30 7,8 °C 7,2 °C 4,4 °C 100 % 1011,6 hPa 0,0 l/m² 0 min 0 min 0 W/m² 9,7 km/h (2 Bft) 100,00 %
15.01.2026 04:32 7,8 °C 7,2 °C 4,4 °C 100 % 1011,6 hPa 0,0 l/m² 0 min 0 min 0 W/m² 9,7 km/h (2 Bft) 97,87 %
15.01.2026 04:34 7,8 °C 7,2 °C 4,4 °C 100 % 1011,6 hPa 0,0 l/m² 0 min 0 min 0 W/m² 12,9 km/h (3 Bft) 97,87 %
15.01.2026 04:36 7,8 °C 7,2 °C 4,4 °C 100 % 1011,6 hPa 0,0 l/m² 0 min 0 min 0 W/m² 12,9 km/h (3 Bft) 97,83 %
15.01.2026 04:38 7,8 °C 7,2 °C 4,4 °C 100 % 1011,6 hPa 0,0 l/m² 0 min 0 min 0 W/m² 12,9 km/h (3 Bft) 100,00 %
15.01.2026 04:40 7,8 °C 7,2 °C 4,4 °C 100 % 1011,6 hPa 0,0 l/m² 0 min 0 min 0 W/m² 16,1 km/h (3 Bft) 97,83 %
15.01.2026 04:42 7,8 °C 7,2 °C 4,4 °C 100 % 1011,5 hPa 0,0 l/m² 0 min 0 min 0 W/m² 16,1 km/h (3 Bft) 100,00 %
15.01.2026 04:44 7,8 °C 7,2 °C 4,4 °C 100 % 1011,6 hPa 0,0 l/m² 0 min 0 min 0 W/m² 12,9 km/h (3 Bft) 100,00 %
15.01.2026 04:46 7,8 °C 7,2 °C 4,4 °C 100 % 1011,6 hPa 0,0 l/m² 0 min 0 min 0 W/m² 12,9 km/h (3 Bft) 100,00 %
15.01.2026 04:48 7,8 °C 7,2 °C 4,4 °C 100 % 1011,6 hPa 0,0 l/m² 0 min 0 min 0 W/m² 9,7 km/h (2 Bft) 100,00 %
15.01.2026 04:50 7,8 °C 7,2 °C 4,4 °C 100 % 1011,6 hPa 0,0 l/m² 0 min 0 min 0 W/m² 16,1 km/h (3 Bft) 100,00 %
15.01.2026 04:52 7,8 °C 7,2 °C 4,4 °C 100 % 1011,7 hPa 0,0 l/m² 0 min 0 min 0 W/m² 6,4 km/h (2 Bft) 100,00 %
15.01.2026 04:54 7,8 °C 7,2 °C 4,4 °C 100 % 1011,6 hPa 0,0 l/m² 0 min 0 min 0 W/m² 12,9 km/h (3 Bft) 100,00 %
15.01.2026 04:56 7,8 °C 7,2 °C 4,4 °C 100 % 1011,6 hPa 0,0 l/m² 0 min 0 min 0 W/m² 9,7 km/h (2 Bft) 97,83 %
15.01.2026 04:58 7,8 °C 7,2 °C 4,4 °C 100 % 1011,6 hPa 0,0 l/m² 0 min 0 min 0 W/m² 16,1 km/h (3 Bft) 100,00 %
15.01.2026 05:00 7,8 °C 7,2 °C 4,4 °C 100 % 1011,6 hPa 0,0 l/m² 0 min 0 min 0 W/m² 6,4 km/h (2 Bft) 100,00 %
15.01.2026 05:02 7,8 °C 7,2 °C 4,4 °C 100 % 1011,6 hPa 0,0 l/m² 0 min 0 min 0 W/m² 6,4 km/h (2 Bft) 100,00 %
15.01.2026 05:04 7,7 °C 7,2 °C 4,4 °C 100 % 1011,5 hPa 0,0 l/m² 0 min 0 min 0 W/m² 6,4 km/h (2 Bft) 100,00 %
15.01.2026 05:06 7,7 °C 7,2 °C 4,4 °C 100 % 1011,5 hPa 0,0 l/m² 0 min 0 min 0 W/m² 6,4 km/h (2 Bft) 97,92 %
15.01.2026 05:08 7,7 °C 7,2 °C 4,4 °C 100 % 1011,6 hPa 0,0 l/m² 0 min 0 min 0 W/m² 12,9 km/h (3 Bft) 97,83 %
15.01.2026 05:10 7,7 °C 7,2 °C 4,4 °C 100 % 1011,5 hPa 0,0 l/m² 0 min 0 min 0 W/m² 12,9 km/h (3 Bft) 97,87 %
15.01.2026 05:12 7,7 °C 7,2 °C 4,4 °C 100 % 1011,5 hPa 0,0 l/m² 0 min 0 min 0 W/m² 16,1 km/h (3 Bft) 95,74 %
15.01.2026 05:14 7,7 °C 7,2 °C 4,4 °C 100 % 1011,5 hPa 0,0 l/m² 0 min 0 min 0 W/m² 6,4 km/h (2 Bft) 95,74 %
15.01.2026 05:16 7,7 °C 7,2 °C 4,4 °C 100 % 1011,5 hPa 0,0 l/m² 0 min 0 min 0 W/m² 12,9 km/h (3 Bft) 95,74 %
15.01.2026 05:18 7,7 °C 7,2 °C 4,4 °C 100 % 1011,5 hPa 0,0 l/m² 0 min 0 min 0 W/m² 12,9 km/h (3 Bft) 95,74 %
15.01.2026 05:20 7,7 °C 7,2 °C 4,4 °C 100 % 1011,5 hPa 0,0 l/m² 0 min 0 min 0 W/m² 12,9 km/h (3 Bft) 95,65 %
15.01.2026 05:22 7,6 °C 7,2 °C 4,4 °C 100 % 1011,5 hPa 0,0 l/m² 0 min 0 min 0 W/m² 9,7 km/h (2 Bft) 93,62 %
15.01.2026 05:24 7,6 °C 7,2 °C 4,4 °C 100 % 1011,5 hPa 0,0 l/m² 0 min 0 min 0 W/m² 6,4 km/h (2 Bft) 95,74 %
15.01.2026 05:26 7,6 °C 7,2 °C 4,4 °C 100 % 1011,5 hPa 0,0 l/m² 0 min 0 min 0 W/m² 6,4 km/h (2 Bft) 98,21 %
15.01.2026 05:28 7,6 °C 7,2 °C 4,4 °C 100 % 1011,5 hPa 0,0 l/m² 0 min 0 min 0 W/m² 12,9 km/h (3 Bft) 97,83 %
15.01.2026 05:30 7,6 °C 7,2 °C 4,4 °C 100 % 1011,4 hPa 0,0 l/m² 0 min 0 min 0 W/m² 6,4 km/h (2 Bft) 95,56 %
15.01.2026 05:32 7,6 °C 7,2 °C 4,4 °C 100 % 1011,5 hPa 0,0 l/m² 0 min 0 min 0 W/m² 12,9 km/h (3 Bft) 92,50 %
15.01.2026 05:34 7,6 °C 7,2 °C 4,4 °C 100 % 1011,5 hPa 0,0 l/m² 0 min 0 min 0 W/m² 12,9 km/h (3 Bft) 95,74 %
15.01.2026 05:36 7,6 °C 6,7 °C 4,4 °C 100 % 1011,5 hPa 0,0 l/m² 0 min 0 min 0 W/m² 6,4 km/h (2 Bft) 93,62 %
15.01.2026 05:38 7,6 °C 7,2 °C 4,4 °C 99 % 1011,5 hPa 0,0 l/m² 0 min 0 min 0 W/m² 12,9 km/h (3 Bft) 95,65 %
15.01.2026 05:40 7,6 °C 7,2 °C 4,4 °C 99 % 1011,5 hPa 0,0 l/m² 0 min 0 min 0 W/m² 12,9 km/h (3 Bft) 98,28 %
15.01.2026 05:42 7,6 °C 7,2 °C 4,4 °C 99 % 1011,4 hPa 0,0 l/m² 0 min 0 min 0 W/m² 6,4 km/h (2 Bft) 97,14 %
15.01.2026 05:44 7,6 °C 7,2 °C 4,4 °C 99 % 1011,4 hPa 0,0 l/m² 0 min 0 min 0 W/m² 12,9 km/h (3 Bft) 98,31 %
15.01.2026 05:46 7,6 °C 7,2 °C 4,4 °C 99 % 1011,4 hPa 0,0 l/m² 0 min 0 min 0 W/m² 9,7 km/h (2 Bft) 97,22 %
15.01.2026 05:48 7,6 °C 7,2 °C 4,4 °C 99 % 1011,4 hPa 0,0 l/m² 0 min 0 min 0 W/m² 12,9 km/h (3 Bft) 97,87 %
15.01.2026 05:50 7,6 °C 7,2 °C 4,4 °C 99 % 1011,4 hPa 0,0 l/m² 0 min 0 min 0 W/m² 16,1 km/h (3 Bft) 97,87 %
15.01.2026 05:52 7,6 °C 7,2 °C 4,4 °C 100 % 1011,4 hPa 0,0 l/m² 0 min 0 min 0 W/m² 6,4 km/h (2 Bft) 97,83 %
15.01.2026 05:54 7,6 °C 7,2 °C 4,4 °C 99 % 1011,4 hPa 0,0 l/m² 0 min 0 min 0 W/m² 12,9 km/h (3 Bft) 98,21 %
15.01.2026 05:56 7,6 °C 7,2 °C 4,4 °C 99 % 1011,4 hPa 0,0 l/m² 0 min 0 min 0 W/m² 6,4 km/h (2 Bft) 93,48 %
15.01.2026 05:58 7,6 °C 7,2 °C 4,4 °C 99 % 1011,4 hPa 0,0 l/m² 0 min 0 min 0 W/m² 6,4 km/h (2 Bft) 95,65 %
15.01.2026 06:00 7,6 °C 7,2 °C 4,4 °C 99 % 1011,4 hPa 0,0 l/m² 0 min 0 min 0 W/m² 6,4 km/h (2 Bft) 97,50 %
15.01.2026 06:02 7,6 °C 7,2 °C 4,4 °C 99 % 1011,4 hPa 0,0 l/m² 0 min 0 min 0 W/m² 12,9 km/h (3 Bft) 100,00 %
15.01.2026 06:04 7,6 °C 7,2 °C 4,4 °C 99 % 1011,4 hPa 0,0 l/m² 0 min 0 min 0 W/m² 9,7 km/h (2 Bft) 97,92 %
15.01.2026 06:07 7,6 °C 7,2 °C 4,4 °C 99 % 1011,4 hPa 0,0 l/m² 0 min 0 min 0 W/m² 12,9 km/h (3 Bft) 97,14 %
15.01.2026 06:08 7,6 °C 7,2 °C 4,4 °C 99 % 1011,3 hPa 0,0 l/m² 0 min 0 min 0 W/m² 9,7 km/h (2 Bft) 97,94 %
15.01.2026 06:12 7,6 °C 7,2 °C 4,4 °C 100 % 1011,3 hPa 0,0 l/m² 0 min 0 min 0 W/m² 6,4 km/h (2 Bft) 92,68 %
15.01.2026 06:16 7,6 °C 7,2 °C 4,4 °C 100 % 1011,4 hPa 0,0 l/m² 0 min 0 min 0 W/m² 16,1 km/h (3 Bft) 97,87 %
15.01.2026 06:18 7,6 °C 7,2 °C 4,4 °C 100 % 1011,3 hPa 0,0 l/m² 0 min 0 min 0 W/m² 9,7 km/h (2 Bft) 95,65 %
15.01.2026 06:20 7,6 °C 7,2 °C 4,4 °C 100 % 1011,3 hPa 0,0 l/m² 0 min 0 min 0 W/m² 12,9 km/h (3 Bft) 95,74 %
15.01.2026 06:22 7,6 °C 7,2 °C 4,4 °C 100 % 1011,3 hPa 0,0 l/m² 0 min 0 min 0 W/m² 6,4 km/h (2 Bft) 97,87 %
15.01.2026 06:24 7,6 °C 7,2 °C 4,4 °C 100 % 1011,4 hPa 0,0 l/m² 0 min 0 min 0 W/m² 6,4 km/h (2 Bft) 97,87 %
15.01.2026 06:26 7,6 °C 7,2 °C 4,4 °C 100 % 1011,4 hPa 0,0 l/m² 0 min 0 min 0 W/m² 9,7 km/h (2 Bft) 97,87 %
15.01.2026 06:28 7,6 °C 7,2 °C 4,4 °C 100 % 1011,3 hPa 0,0 l/m² 0 min 0 min 0 W/m² 6,4 km/h (2 Bft) 97,87 %
15.01.2026 06:30 7,6 °C 7,2 °C 4,4 °C 100 % 1011,3 hPa 0,0 l/m² 0 min 0 min 0 W/m² 6,4 km/h (2 Bft) 95,65 %
15.01.2026 06:32 7,6 °C 6,7 °C 4,4 °C 100 % 1011,4 hPa 0,0 l/m² 0 min 0 min 0 W/m² 6,4 km/h (2 Bft) 97,87 %
15.01.2026 06:34 7,6 °C 6,7 °C 4,4 °C 100 % 1011,4 hPa 0,0 l/m² 0 min 0 min 0 W/m² 9,7 km/h (2 Bft) 97,87 %
15.01.2026 06:36 7,6 °C 6,7 °C 4,4 °C 99 % 1011,3 hPa 0,0 l/m² 0 min 0 min 0 W/m² 6,4 km/h (2 Bft) 95,74 %
15.01.2026 06:38 7,5 °C 6,7 °C 4,4 °C 99 % 1011,3 hPa 0,0 l/m² 0 min 0 min 0 W/m² 6,4 km/h (2 Bft) 97,87 %
15.01.2026 06:40 7,5 °C 6,7 °C 4,4 °C 99 % 1011,4 hPa 0,0 l/m² 0 min 0 min 0 W/m² 3,2 km/h (1 Bft) 97,87 %
15.01.2026 06:42 7,5 °C 6,7 °C 4,4 °C 99 % 1011,3 hPa 0,0 l/m² 0 min 0 min 0 W/m² 6,4 km/h (2 Bft) 97,83 %
15.01.2026 06:44 7,4 °C 6,7 °C 4,4 °C 99 % 1011,3 hPa 0,0 l/m² 0 min 0 min 0 W/m² 6,4 km/h (2 Bft) 97,87 %
15.01.2026 06:46 7,4 °C 6,7 °C 4,4 °C 99 % 1011,4 hPa 0,0 l/m² 0 min 0 min 0 W/m² 6,4 km/h (2 Bft) 97,87 %
15.01.2026 06:48 7,4 °C 6,7 °C 4,4 °C 99 % 1011,3 hPa 0,0 l/m² 0 min 0 min 0 W/m² 12,9 km/h (3 Bft) 93,62 %
15.01.2026 06:50 7,4 °C 6,7 °C 4,4 °C 99 % 1011,3 hPa 0,0 l/m² 0 min 0 min 0 W/m² 6,4 km/h (2 Bft) 97,87 %
15.01.2026 06:52 7,4 °C 6,7 °C 3,9 °C 99 % 1011,4 hPa 0,0 l/m² 0 min 0 min 0 W/m² 3,2 km/h (1 Bft) 97,87 %
15.01.2026 06:54 7,4 °C 6,7 °C 3,9 °C 99 % 1011,4 hPa 0,0 l/m² 0 min 0 min 0 W/m² 3,2 km/h (1 Bft) 93,48 %
15.01.2026 06:56 7,3 °C 6,7 °C 3,9 °C 99 % 1011,4 hPa 0,0 l/m² 0 min 0 min 0 W/m² 6,4 km/h (2 Bft) 97,83 %
15.01.2026 06:58 7,3 °C 6,7 °C 3,9 °C 99 % 1011,4 hPa 0,0 l/m² 0 min 0 min 0 W/m² 3,2 km/h (1 Bft) 97,83 %
15.01.2026 07:00 7,3 °C 6,7 °C 3,9 °C 99 % 1011,4 hPa 0,0 l/m² 0 min 0 min 0 W/m² 6,4 km/h (2 Bft) 93,62 %
15.01.2026 07:02 7,3 °C 6,7 °C 3,9 °C 99 % 1011,4 hPa 0,0 l/m² 0 min 0 min 0 W/m² 6,4 km/h (2 Bft) 95,74 %
15.01.2026 07:04 7,3 °C 6,7 °C 3,9 °C 99 % 1011,4 hPa 0,0 l/m² 0 min 0 min 0 W/m² 6,4 km/h (2 Bft) 97,92 %
15.01.2026 07:06 7,3 °C 6,7 °C 3,9 °C 99 % 1011,4 hPa 0,0 l/m² 0 min 0 min 0 W/m² 9,7 km/h (2 Bft) 96,36 %
15.01.2026 07:08 7,3 °C 6,7 °C 4,4 °C 99 % 1011,4 hPa 0,0 l/m² 0 min 0 min 0 W/m² 6,4 km/h (2 Bft) 92,11 %
15.01.2026 07:10 7,3 °C 6,7 °C 4,4 °C 99 % 1011,3 hPa 0,0 l/m² 0 min 0 min 0 W/m² 6,4 km/h (2 Bft) 95,65 %
15.01.2026 07:12 7,3 °C 6,7 °C 4,4 °C 99 % 1011,3 hPa 0,0 l/m² 0 min 0 min 0 W/m² 9,7 km/h (2 Bft) 98,21 %
15.01.2026 07:14 7,2 °C 6,7 °C 4,4 °C 99 % 1011,4 hPa 0,0 l/m² 0 min 0 min 0 W/m² 6,4 km/h (2 Bft) 95,12 %
15.01.2026 07:16 7,2 °C 6,7 °C 3,9 °C 99 % 1011,4 hPa 0,0 l/m² 0 min 0 min 0 W/m² 16,1 km/h (3 Bft) 95,65 %
15.01.2026 07:18 7,2 °C 6,7 °C 3,9 °C 99 % 1011,4 hPa 0,0 l/m² 0 min 0 min 0 W/m² 6,4 km/h (2 Bft) 97,87 %
15.01.2026 07:20 7,2 °C 6,7 °C 3,9 °C 99 % 1011,4 hPa 0,0 l/m² 0 min 0 min 0 W/m² 6,4 km/h (2 Bft) 95,74 %
15.01.2026 07:22 7,2 °C 6,7 °C 3,9 °C 99 % 1011,3 hPa 0,0 l/m² 0 min 0 min 0 W/m² 12,9 km/h (3 Bft) 97,83 %
15.01.2026 07:24 7,2 °C 6,7 °C 3,9 °C 99 % 1011,3 hPa 0,0 l/m² 0 min 0 min 0 W/m² 3,2 km/h (1 Bft) 98,21 %
15.01.2026 07:26 7,2 °C 6,1 °C 3,9 °C 99 % 1011,3 hPa 0,0 l/m² 0 min 0 min 0 W/m² 12,9 km/h (3 Bft) 95,56 %
15.01.2026 07:28 7,2 °C 6,7 °C 3,9 °C 99 % 1011,3 hPa 0,0 l/m² 0 min 0 min 0 W/m² 6,4 km/h (2 Bft) 97,44 %
15.01.2026 07:30 7,2 °C 6,7 °C 3,9 °C 99 % 1011,2 hPa 0,0 l/m² 0 min 0 min 0 W/m² 6,4 km/h (2 Bft) 97,83 %
15.01.2026 07:32 7,1 °C 6,7 °C 3,9 °C 99 % 1011,3 hPa 0,0 l/m² 0 min 0 min 0 W/m² 6,4 km/h (2 Bft) 100,00 %
15.01.2026 07:34 7,1 °C 6,7 °C 3,9 °C 99 % 1011,3 hPa 0,0 l/m² 0 min 0 min 0 W/m² 6,4 km/h (2 Bft) 100,00 %
15.01.2026 07:36 7,1 °C 6,7 °C 3,9 °C 99 % 1011,3 hPa 0,0 l/m² 0 min 0 min 0 W/m² 6,4 km/h (2 Bft) 100,00 %
15.01.2026 07:38 7,1 °C 6,7 °C 3,9 °C 99 % 1011,3 hPa 0,0 l/m² 0 min 0 min 0 W/m² 9,7 km/h (2 Bft) 97,87 %
15.01.2026 07:40 7,1 °C 6,7 °C 3,9 °C 99 % 1011,3 hPa 0,0 l/m² 0 min 0 min 0 W/m² 12,9 km/h (3 Bft) 100,00 %
15.01.2026 07:42 7,1 °C 6,7 °C 3,9 °C 99 % 1011,2 hPa 0,0 l/m² 0 min 0 min 0 W/m² 9,7 km/h (2 Bft) 97,83 %
15.01.2026 07:44 7,1 °C 6,7 °C 4,4 °C 99 % 1011,2 hPa 0,0 l/m² 0 min 0 min 0 W/m² 12,9 km/h (3 Bft) 98,18 %
15.01.2026 07:46 7,1 °C 6,7 °C 4,4 °C 99 % 1011,3 hPa 0,0 l/m² 0 min 0 min 0 W/m² 12,9 km/h (3 Bft) 100,00 %
15.01.2026 07:48 7,1 °C 6,7 °C 4,4 °C 99 % 1011,3 hPa 0,0 l/m² 0 min 0 min 0 W/m² 6,4 km/h (2 Bft) 100,00 %
15.01.2026 07:50 7,1 °C 6,7 °C 4,4 °C 99 % 1011,3 hPa 0,0 l/m² 0 min 0 min 0 W/m² 12,9 km/h (3 Bft) 95,74 %
15.01.2026 07:52 7,2 °C 6,7 °C 4,4 °C 99 % 1011,3 hPa 0,0 l/m² 0 min 0 min 0 W/m² 9,7 km/h (2 Bft) 97,83 %
15.01.2026 07:54 7,2 °C 6,7 °C 4,4 °C 99 % 1011,2 hPa 0,0 l/m² 0 min 0 min 0 W/m² 12,9 km/h (3 Bft) 100,00 %
15.01.2026 07:56 7,2 °C 6,7 °C 4,4 °C 99 % 1011,3 hPa 0,0 l/m² 0 min 0 min 0 W/m² 12,9 km/h (3 Bft) 97,83 %
15.01.2026 07:58 7,2 °C 6,7 °C 4,4 °C 99 % 1011,2 hPa 0,0 l/m² 0 min 0 min 0 W/m² 6,4 km/h (2 Bft) 97,78 %
15.01.2026 08:00 7,2 °C 6,7 °C 4,4 °C 99 % 1011,2 hPa 0,0 l/m² 0 min 0 min 0 W/m² 12,9 km/h (3 Bft) 96,49 %
15.01.2026 08:02 7,2 °C 6,7 °C 4,4 °C 99 % 1011,2 hPa 0,0 l/m² 0 min 0 min 0 W/m² 12,9 km/h (3 Bft) 92,50 %
15.01.2026 08:04 7,2 °C 6,7 °C 4,4 °C 99 % 1011,2 hPa 0,0 l/m² 0 min 0 min 0 W/m² 9,7 km/h (2 Bft) 93,62 %
15.01.2026 08:06 7,2 °C 6,7 °C 4,4 °C 99 % 1011,2 hPa 0,0 l/m² 0 min 0 min 0 W/m² 12,9 km/h (3 Bft) 97,87 %
15.01.2026 08:08 7,3 °C 7,2 °C 4,4 °C 99 % 1011,2 hPa 0,0 l/m² 0 min 0 min 0 W/m² 12,9 km/h (3 Bft) 98,15 %
15.01.2026 08:10 7,3 °C 7,2 °C 4,4 °C 99 % 1011,3 hPa 0,0 l/m² 0 min 0 min 0 W/m² 16,1 km/h (3 Bft) 97,44 %
15.01.2026 08:12 7,3 °C 7,2 °C 4,4 °C 99 % 1011,3 hPa 0,0 l/m² 0 min 0 min 0 W/m² 6,4 km/h (2 Bft) 97,92 %
15.01.2026 08:14 7,3 °C 7,2 °C 4,4 °C 99 % 1011,3 hPa 0,0 l/m² 0 min 0 min 0 W/m² 6,4 km/h (2 Bft) 95,74 %
15.01.2026 08:16 7,3 °C 7,2 °C 4,4 °C 99 % 1011,3 hPa 0,0 l/m² 0 min 0 min 0 W/m² 6,4 km/h (2 Bft) 97,67 %
15.01.2026 08:18 7,3 °C 7,2 °C 4,4 °C 99 % 1011,3 hPa 0,0 l/m² 0 min 0 min 0 W/m² 6,4 km/h (2 Bft) 94,00 %
15.01.2026 08:20 7,3 °C 7,2 °C 4,4 °C 99 % 1011,2 hPa 0,0 l/m² 0 min 0 min 0 W/m² 12,9 km/h (3 Bft) 95,74 %
15.01.2026 08:22 7,3 °C 7,2 °C 4,4 °C 99 % 1011,2 hPa 0,0 l/m² 0 min 0 min 0 W/m² 12,9 km/h (3 Bft) 97,87 %
15.01.2026 08:24 7,3 °C 7,2 °C 4,4 °C 99 % 1011,1 hPa 0,0 l/m² 0 min 0 min 0 W/m² 16,1 km/h (3 Bft) 97,87 %
15.01.2026 08:26 7,4 °C 7,2 °C 4,4 °C 99 % 1011,1 hPa 0,0 l/m² 0 min 0 min 0 W/m² 12,9 km/h (3 Bft) 98,15 %
15.01.2026 08:28 7,4 °C 7,2 °C 4,4 °C 99 % 1011,1 hPa 0,0 l/m² 0 min 0 min 0 W/m² 6,4 km/h (2 Bft) 94,74 %
15.01.2026 08:30 7,4 °C 7,2 °C 4,4 °C 99 % 1011,1 hPa 0,0 l/m² 0 min 0 min 0 W/m² 12,9 km/h (3 Bft) 95,83 %
15.01.2026 08:32 7,4 °C 7,2 °C 4,4 °C 99 % 1011,1 hPa 0,0 l/m² 0 min 0 min 0 W/m² 12,9 km/h (3 Bft) 93,62 %
15.01.2026 08:34 7,4 °C 7,2 °C 4,4 °C 99 % 1011,1 hPa 0,0 l/m² 0 min 0 min 0 W/m² 12,9 km/h (3 Bft) 97,87 %
15.01.2026 08:36 7,4 °C 7,2 °C 4,4 °C 99 % 1011,1 hPa 0,0 l/m² 0 min 0 min 0 W/m² 16,1 km/h (3 Bft) 97,67 %
15.01.2026 08:38 7,4 °C 7,2 °C 4,4 °C 99 % 1011,1 hPa 0,0 l/m² 0 min 0 min 0 W/m² 12,9 km/h (3 Bft) 56,52 %
15.01.2026 08:40 7,4 °C 7,2 °C 4,4 °C 99 % 1011,1 hPa 0,0 l/m² 0 min 0 min 0 W/m² 12,9 km/h (3 Bft) 98,15 %
15.01.2026 08:42 7,4 °C 7,2 °C 4,4 °C 99 % 1011,0 hPa 0,0 l/m² 0 min 0 min 0 W/m² 12,9 km/h (3 Bft) 94,74 %
15.01.2026 08:44 7,4 °C 7,2 °C 4,4 °C 99 % 1011,0 hPa 0,0 l/m² 0 min 0 min 0 W/m² 6,4 km/h (2 Bft) 100,00 %
15.01.2026 08:46 7,4 °C 7,2 °C 4,4 °C 99 % 1011,0 hPa 0,0 l/m² 0 min 0 min 3 W/m² 12,9 km/h (3 Bft) 100,00 %
15.01.2026 08:48 7,4 °C 7,2 °C 4,4 °C 99 % 1011,0 hPa 0,0 l/m² 0 min 0 min 5 W/m² 6,4 km/h (2 Bft) 100,00 %
15.01.2026 08:50 7,5 °C 7,2 °C 4,4 °C 99 % 1011,0 hPa 0,0 l/m² 0 min 0 min 5 W/m² 6,4 km/h (2 Bft) 97,50 %
15.01.2026 08:52 7,4 °C 7,2 °C 4,4 °C 99 % 1011,0 hPa 0,0 l/m² 0 min 0 min 5 W/m² 16,1 km/h (3 Bft) 97,87 %
15.01.2026 08:54 7,5 °C 7,2 °C 4,4 °C 99 % 1011,0 hPa 0,0 l/m² 0 min 0 min 7 W/m² 12,9 km/h (3 Bft) 95,74 %
15.01.2026 08:56 7,5 °C 7,2 °C 4,4 °C 99 % 1011,0 hPa 0,0 l/m² 0 min 0 min 7 W/m² 19,3 km/h (3 Bft) 95,74 %
15.01.2026 08:58 7,5 °C 7,2 °C 4,4 °C 99 % 1011,0 hPa 0,0 l/m² 0 min 0 min 7 W/m² 12,9 km/h (3 Bft) 97,67 %
15.01.2026 09:00 7,5 °C 7,2 °C 4,4 °C 99 % 1011,0 hPa 0,0 l/m² 0 min 0 min 7 W/m² 16,1 km/h (3 Bft) 96,00 %
15.01.2026 09:02 7,5 °C 7,2 °C 4,4 °C 99 % 1011,0 hPa 0,0 l/m² 0 min 0 min 7 W/m² 12,9 km/h (3 Bft) 97,87 %
15.01.2026 09:04 7,5 °C 7,2 °C 5,0 °C 99 % 1011,0 hPa 0,0 l/m² 0 min 0 min 7 W/m² 19,3 km/h (3 Bft) 95,92 %
15.01.2026 09:08 7,6 °C 7,2 °C 5,0 °C 99 % 1011,1 hPa 0,0 l/m² 0 min 0 min 6 W/m² 16,1 km/h (3 Bft) 97,87 %
15.01.2026 09:10 7,5 °C 7,2 °C 5,0 °C 99 % 1011,1 hPa 0,0 l/m² 0 min 0 min 7 W/m² 12,9 km/h (3 Bft) 97,73 %
15.01.2026 09:12 7,6 °C 7,2 °C 5,0 °C 99 % 1011,1 hPa 0,0 l/m² 0 min 0 min 5 W/m² 12,9 km/h (3 Bft) 98,00 %
15.01.2026 09:14 7,6 °C 7,2 °C 5,0 °C 99 % 1011,1 hPa 0,0 l/m² 0 min 0 min 7 W/m² 12,9 km/h (3 Bft) 92,86 %
15.01.2026 09:16 7,6 °C 7,2 °C 5,0 °C 99 % 1011,1 hPa 0,0 l/m² 0 min 0 min 11 W/m² 12,9 km/h (3 Bft) 96,08 %
15.01.2026 09:18 7,6 °C 7,2 °C 5,0 °C 99 % 1011,1 hPa 0,0 l/m² 0 min 0 min 12 W/m² 9,7 km/h (2 Bft) 95,24 %
15.01.2026 09:20 7,6 °C 7,2 °C 5,0 °C 99 % 1011,1 hPa 0,0 l/m² 0 min 0 min 14 W/m² 16,1 km/h (3 Bft) 96,15 %
15.01.2026 09:22 7,6 °C 7,2 °C 5,0 °C 99 % 1011,0 hPa 0,0 l/m² 0 min 0 min 12 W/m² 9,7 km/h (2 Bft) 95,24 %
15.01.2026 09:24 7,6 °C 7,2 °C 5,0 °C 99 % 1011,0 hPa 0,0 l/m² 0 min 0 min 12 W/m² 16,1 km/h (3 Bft) 96,00 %
15.01.2026 09:26 7,6 °C 7,2 °C 5,0 °C 99 % 1011,0 hPa 0,0 l/m² 0 min 0 min 18 W/m² 12,9 km/h (3 Bft) 95,83 %
15.01.2026 09:28 7,6 °C 7,2 °C 5,0 °C 99 % 1011,0 hPa 0,0 l/m² 0 min 0 min 25 W/m² 22,5 km/h (4 Bft) 97,67 %
15.01.2026 09:30 7,6 °C 7,8 °C 5,0 °C 99 % 1011,0 hPa 0,0 l/m² 0 min 0 min 26 W/m² 16,1 km/h (3 Bft) 95,92 %
15.01.2026 09:32 7,6 °C 7,8 °C 5,0 °C 99 % 1011,0 hPa 0,0 l/m² 0 min 0 min 23 W/m² 12,9 km/h (3 Bft) 97,96 %
15.01.2026 09:34 7,7 °C 7,8 °C 5,0 °C 99 % 1011,0 hPa 0,0 l/m² 0 min 0 min 25 W/m² 6,4 km/h (2 Bft) 97,87 %
15.01.2026 09:36 7,7 °C 7,8 °C 5,0 °C 99 % 1011,1 hPa 0,0 l/m² 0 min 0 min 18 W/m² 12,9 km/h (3 Bft) 97,78 %
15.01.2026 09:38 7,7 °C 7,8 °C 5,0 °C 99 % 1011,1 hPa 0,0 l/m² 0 min 0 min 19 W/m² 12,9 km/h (3 Bft) 93,75 %
15.01.2026 09:40 7,7 °C 7,8 °C 5,0 °C 99 % 1011,1 hPa 0,0 l/m² 0 min 0 min 19 W/m² 22,5 km/h (4 Bft) 97,87 %
15.01.2026 09:42 7,7 °C 7,8 °C 5,0 °C 99 % 1011,1 hPa 0,0 l/m² 0 min 0 min 18 W/m² 16,1 km/h (3 Bft) 97,56 %
15.01.2026 09:44 7,7 °C 7,8 °C 5,0 °C 99 % 1011,1 hPa 0,0 l/m² 0 min 0 min 19 W/m² 16,1 km/h (3 Bft) 98,08 %
15.01.2026 09:46 7,8 °C 7,8 °C 5,0 °C 99 % 1011,1 hPa 0,0 l/m² 0 min 0 min 25 W/m² 6,4 km/h (2 Bft) 95,83 %
15.01.2026 09:48 7,8 °C 7,8 °C 5,0 °C 99 % 1011,2 hPa 0,0 l/m² 0 min 0 min 34 W/m² 12,9 km/h (3 Bft) 95,65 %
15.01.2026 09:50 7,8 °C 7,8 °C 5,0 °C 99 % 1011,1 hPa 0,0 l/m² 0 min 0 min 39 W/m² 6,4 km/h (2 Bft) 93,62 %
15.01.2026 09:52 7,8 °C 7,8 °C 5,0 °C 99 % 1011,2 hPa 0,0 l/m² 0 min 0 min 46 W/m² 16,1 km/h (3 Bft) 97,67 %
15.01.2026 09:54 7,8 °C 8,3 °C 5,0 °C 99 % 1011,1 hPa 0,0 l/m² 0 min 0 min 57 W/m² 9,7 km/h (2 Bft) 95,92 %
15.01.2026 09:56 7,9 °C 8,3 °C 5,6 °C 99 % 1011,2 hPa 0,0 l/m² 0 min 0 min 62 W/m² 12,9 km/h (3 Bft) 97,96 %
15.01.2026 09:58 7,9 °C 8,3 °C 5,6 °C 99 % 1011,1 hPa 0,0 l/m² 0 min 0 min 54 W/m² 16,1 km/h (3 Bft) 97,87 %
15.01.2026 10:00 7,9 °C 8,3 °C 5,6 °C 99 % 1011,1 hPa 0,0 l/m² 0 min 0 min 53 W/m² 16,1 km/h (3 Bft) 97,83 %
15.01.2026 10:02 7,9 °C 8,3 °C 5,6 °C 99 % 1011,2 hPa 0,0 l/m² 0 min 0 min 51 W/m² 12,9 km/h (3 Bft) 41,67 %
15.01.2026 10:04 8,0 °C 8,3 °C 5,6 °C 99 % 1011,1 hPa 0,0 l/m² 0 min 0 min 46 W/m² 6,4 km/h (2 Bft) 93,88 %
15.01.2026 10:08 8,1 °C 8,3 °C 5,6 °C 99 % 1011,1 hPa 0,0 l/m² 0 min 0 min 45 W/m² 12,9 km/h (3 Bft) 98,98 %
15.01.2026 10:10 8,1 °C 8,3 °C 5,6 °C 99 % 1011,0 hPa 0,0 l/m² 0 min 0 min 41 W/m² 6,4 km/h (2 Bft) 100,00 %
15.01.2026 10:12 8,1 °C 8,3 °C 5,6 °C 99 % 1011,1 hPa 0,0 l/m² 0 min 0 min 54 W/m² 12,9 km/h (3 Bft) 100,00 %
15.01.2026 10:14 8,1 °C 8,3 °C 5,6 °C 99 % 1011,1 hPa 0,0 l/m² 0 min 0 min 56 W/m² 6,4 km/h (2 Bft) 98,15 %
15.01.2026 10:16 8,1 °C 8,3 °C 5,6 °C 99 % 1011,1 hPa 0,0 l/m² 0 min 0 min 60 W/m² 12,9 km/h (3 Bft) 91,49 %
15.01.2026 10:18 8,2 °C 8,3 °C 5,6 °C 99 % 1011,1 hPa 0,0 l/m² 0 min 0 min 69 W/m² 12,9 km/h (3 Bft) 97,92 %
15.01.2026 10:20 8,2 °C 8,3 °C 5,6 °C 99 % 1011,1 hPa 0,0 l/m² 0 min 0 min 55 W/m² 6,4 km/h (2 Bft) 100,00 %
15.01.2026 10:22 8,2 °C 8,9 °C 5,6 °C 99 % 1011,1 hPa 0,0 l/m² 0 min 0 min 51 W/m² 6,4 km/h (2 Bft) 97,83 %
15.01.2026 10:24 8,3 °C 8,9 °C 5,6 °C 99 % 1011,1 hPa 0,0 l/m² 0 min 0 min 45 W/m² 6,4 km/h (2 Bft) 97,22 %
15.01.2026 10:26 8,3 °C 8,9 °C 5,6 °C 99 % 1011,1 hPa 0,0 l/m² 0 min 0 min 34 W/m² 12,9 km/h (3 Bft) 96,30 %
15.01.2026 10:28 8,3 °C 8,9 °C 5,6 °C 99 % 1011,1 hPa 0,0 l/m² 0 min 0 min 38 W/m² 6,4 km/h (2 Bft) 100,00 %
15.01.2026 10:30 8,4 °C 8,9 °C 5,6 °C 99 % 1011,2 hPa 0,0 l/m² 0 min 0 min 39 W/m² 16,1 km/h (3 Bft) 100,00 %
15.01.2026 10:32 8,4 °C 8,9 °C 6,1 °C 99 % 1011,2 hPa 0,0 l/m² 0 min 0 min 40 W/m² 16,1 km/h (3 Bft) 100,00 %
15.01.2026 10:34 8,4 °C 8,9 °C 6,1 °C 99 % 1011,2 hPa 0,0 l/m² 0 min 0 min 48 W/m² 6,4 km/h (2 Bft) 96,00 %
15.01.2026 10:38 8,5 °C 8,9 °C 6,1 °C 99 % 1011,2 hPa 0,0 l/m² 0 min 0 min 46 W/m² 12,9 km/h (3 Bft) 97,67 %
15.01.2026 10:40 8,5 °C 8,9 °C 6,1 °C 99 % 1011,2 hPa 0,0 l/m² 0 min 0 min 50 W/m² 6,4 km/h (2 Bft) 94,34 %
15.01.2026 10:42 8,6 °C 8,9 °C 6,1 °C 99 % 1011,1 hPa 0,0 l/m² 0 min 0 min 49 W/m² 12,9 km/h (3 Bft) 98,00 %
15.01.2026 10:44 8,6 °C 8,9 °C 6,1 °C 99 % 1011,2 hPa 0,0 l/m² 0 min 0 min 51 W/m² 6,4 km/h (2 Bft) 94,74 %
15.01.2026 10:46 8,6 °C 8,9 °C 6,1 °C 99 % 1011,2 hPa 0,0 l/m² 0 min 0 min 51 W/m² 6,4 km/h (2 Bft) 95,74 %
15.01.2026 10:48 8,6 °C 8,9 °C 5,6 °C 99 % 1011,1 hPa 0,0 l/m² 0 min 0 min 50 W/m² 6,4 km/h (2 Bft) 94,64 %
15.01.2026 10:50 8,6 °C 8,3 °C 5,6 °C 99 % 1011,2 hPa 0,0 l/m² 0 min 0 min 45 W/m² 6,4 km/h (2 Bft) 97,30 %
15.01.2026 10:52 8,6 °C 8,3 °C 5,6 °C 99 % 1011,2 hPa 0,0 l/m² 0 min 0 min 45 W/m² 9,7 km/h (2 Bft) 93,75 %
15.01.2026 10:54 8,6 °C 8,9 °C 5,6 °C 99 % 1011,2 hPa 0,0 l/m² 0 min 0 min 46 W/m² 16,1 km/h (3 Bft) 96,43 %
15.01.2026 10:56 8,6 °C 8,9 °C 5,6 °C 99 % 1011,2 hPa 0,0 l/m² 0 min 0 min 51 W/m² 12,9 km/h (3 Bft) 94,74 %
15.01.2026 10:58 8,6 °C 8,9 °C 6,1 °C 99 % 1011,2 hPa 0,0 l/m² 0 min 0 min 51 W/m² 12,9 km/h (3 Bft) 95,74 %
15.01.2026 11:00 8,6 °C 8,9 °C 6,1 °C 99 % 1011,2 hPa 0,0 l/m² 0 min 0 min 51 W/m² 12,9 km/h (3 Bft) 94,44 %
15.01.2026 11:02 8,7 °C 8,9 °C 6,1 °C 99 % 1011,3 hPa 0,0 l/m² 0 min 0 min 47 W/m² 19,3 km/h (3 Bft) 93,75 %
15.01.2026 11:04 8,7 °C 8,9 °C 6,1 °C 99 % 1011,2 hPa 0,0 l/m² 0 min 0 min 47 W/m² 6,4 km/h (2 Bft) 97,37 %
15.01.2026 11:08 8,7 °C 8,9 °C 6,1 °C 99 % 1011,3 hPa 0,0 l/m² 0 min 0 min 48 W/m² 12,9 km/h (3 Bft) 94,74 %
15.01.2026 11:10 8,7 °C 8,9 °C 6,1 °C 99 % 1011,2 hPa 0,0 l/m² 0 min 0 min 46 W/m² 12,9 km/h (3 Bft) 94,64 %
15.01.2026 11:12 8,7 °C 8,9 °C 6,1 °C 99 % 1011,2 hPa 0,0 l/m² 0 min 0 min 60 W/m² 19,3 km/h (3 Bft) 97,37 %
15.01.2026 11:14 8,8 °C 8,9 °C 6,1 °C 99 % 1011,2 hPa 0,0 l/m² 0 min 0 min 55 W/m² 6,4 km/h (2 Bft) 95,74 %
15.01.2026 11:16 8,8 °C 8,9 °C 6,1 °C 99 % 1011,2 hPa 0,0 l/m² 0 min 0 min 46 W/m² 16,1 km/h (3 Bft) 95,56 %
15.01.2026 11:18 8,8 °C 8,9 °C 6,1 °C 99 % 1011,2 hPa 0,0 l/m² 0 min 0 min 42 W/m² 9,7 km/h (2 Bft) 96,43 %
15.01.2026 11:20 8,8 °C 8,9 °C 6,1 °C 99 % 1011,2 hPa 0,0 l/m² 0 min 0 min 29 W/m² 12,9 km/h (3 Bft) 100,00 %
15.01.2026 11:22 8,8 °C 8,9 °C 6,1 °C 99 % 1011,2 hPa 0,0 l/m² 0 min 0 min 27 W/m² 9,7 km/h (2 Bft) 97,78 %
15.01.2026 11:24 8,9 °C 8,9 °C 6,1 °C 99 % 1011,2 hPa 0,0 l/m² 0 min 0 min 27 W/m² 12,9 km/h (3 Bft) 100,00 %
15.01.2026 11:26 8,9 °C 8,9 °C 6,1 °C 98 % 1011,2 hPa 0,0 l/m² 0 min 0 min 26 W/m² 9,7 km/h (2 Bft) 97,44 %
15.01.2026 11:28 8,9 °C 8,9 °C 6,1 °C 98 % 1011,3 hPa 0,0 l/m² 0 min 0 min 25 W/m² 12,9 km/h (3 Bft) 95,65 %
15.01.2026 11:30 8,9 °C 8,9 °C 6,1 °C 98 % 1011,3 hPa 0,0 l/m² 0 min 0 min 25 W/m² 12,9 km/h (3 Bft) 100,00 %
15.01.2026 11:32 8,9 °C 8,9 °C 6,1 °C 98 % 1011,3 hPa 0,0 l/m² 0 min 0 min 25 W/m² 16,1 km/h (3 Bft) 97,50 %
15.01.2026 11:34 9,0 °C 8,9 °C 6,1 °C 98 % 1011,3 hPa 0,0 l/m² 0 min 0 min 25 W/m² 12,9 km/h (3 Bft) 100,00 %
15.01.2026 11:36 9,0 °C 9,4 °C 6,1 °C 98 % 1011,3 hPa 0,0 l/m² 0 min 0 min 28 W/m² 12,9 km/h (3 Bft) 100,00 %
15.01.2026 11:38 9,0 °C 8,9 °C 6,1 °C 98 % 1011,3 hPa 0,0 l/m² 0 min 0 min 29 W/m² 12,9 km/h (3 Bft) 100,00 %
15.01.2026 11:40 9,1 °C 9,4 °C 6,1 °C 98 % 1011,2 hPa 0,0 l/m² 0 min 0 min 27 W/m² 12,9 km/h (3 Bft) 100,00 %
15.01.2026 11:42 9,1 °C 9,4 °C 6,1 °C 98 % 1011,2 hPa 0,0 l/m² 0 min 0 min 30 W/m² 6,4 km/h (2 Bft) 100,00 %
15.01.2026 11:44 9,1 °C 9,4 °C 6,1 °C 98 % 1011,2 hPa 0,0 l/m² 0 min 0 min 29 W/m² 6,4 km/h (2 Bft) 100,00 %
15.01.2026 11:46 9,1 °C 9,4 °C 6,1 °C 98 % 1011,2 hPa 0,0 l/m² 0 min 0 min 29 W/m² 19,3 km/h (3 Bft) 100,00 %
15.01.2026 11:48 9,2 °C 9,4 °C 6,1 °C 98 % 1011,2 hPa 0,0 l/m² 0 min 0 min 31 W/m² 9,7 km/h (2 Bft) 97,83 %
15.01.2026 11:50 9,2 °C 9,4 °C 6,1 °C 97 % 1011,2 hPa 0,0 l/m² 0 min 0 min 34 W/m² 16,1 km/h (3 Bft) 100,00 %
15.01.2026 11:52 9,2 °C 9,4 °C 6,1 °C 97 % 1011,1 hPa 0,0 l/m² 0 min 0 min 33 W/m² 9,7 km/h (2 Bft) 100,00 %
15.01.2026 11:54 9,2 °C 9,4 °C 6,7 °C 97 % 1011,1 hPa 0,0 l/m² 0 min 0 min 38 W/m² 12,9 km/h (3 Bft) 100,00 %
15.01.2026 11:56 9,3 °C 9,4 °C 6,7 °C 97 % 1011,1 hPa 0,0 l/m² 0 min 0 min 34 W/m² 12,9 km/h (3 Bft) 100,00 %
15.01.2026 11:58 9,3 °C 9,4 °C 6,7 °C 97 % 1011,1 hPa 0,0 l/m² 0 min 0 min 28 W/m² 9,7 km/h (2 Bft) 97,96 %
15.01.2026 12:00 9,3 °C 9,4 °C 6,7 °C 97 % 1011,2 hPa 0,0 l/m² 0 min 0 min 24 W/m² 12,9 km/h (3 Bft) 100,00 %
15.01.2026 12:02 9,3 °C 9,4 °C 6,7 °C 97 % 1011,1 hPa 0,0 l/m² 0 min 0 min 26 W/m² 12,9 km/h (3 Bft) 100,00 %
15.01.2026 12:04 9,4 °C 9,4 °C 6,7 °C 97 % 1011,1 hPa 0,0 l/m² 0 min 0 min 26 W/m² 9,7 km/h (2 Bft) 100,00 %
15.01.2026 12:07 9,4 °C 9,4 °C 6,7 °C 97 % 1011,0 hPa 0,0 l/m² 0 min 0 min 49 W/m² 16,1 km/h (3 Bft) 100,00 %
15.01.2026 12:10 9,5 °C 10,0 °C 6,7 °C 96 % 1011,0 hPa 0,0 l/m² 0 min 0 min 58 W/m² 16,1 km/h (3 Bft) 100,00 %
15.01.2026 12:12 9,5 °C 10,0 °C 6,7 °C 96 % 1010,9 hPa 0,0 l/m² 0 min 0 min 122 W/m² 12,9 km/h (3 Bft) 97,92 %
15.01.2026 12:16 9,6 °C 10,6 °C 6,7 °C 96 % 1010,8 hPa 0,0 l/m² 0 min 0 min 127 W/m² 9,7 km/h (2 Bft) 97,87 %
15.01.2026 12:18 9,7 °C 10,6 °C 7,2 °C 96 % 1010,8 hPa 0,0 l/m² 0 min 0 min 125 W/m² 6,4 km/h (2 Bft) 97,83 %
15.01.2026 12:20 9,7 °C 10,6 °C 7,2 °C 96 % 1010,8 hPa 0,0 l/m² 0 min 0 min 123 W/m² 12,9 km/h (3 Bft) 97,92 %
15.01.2026 12:22 9,7 °C 10,6 °C 7,2 °C 95 % 1010,8 hPa 0,0 l/m² 0 min 0 min 123 W/m² 6,4 km/h (2 Bft) 95,56 %
15.01.2026 12:24 9,8 °C 10,6 °C 7,2 °C 95 % 1010,8 hPa 0,0 l/m² 0 min 0 min 127 W/m² 12,9 km/h (3 Bft) 93,48 %
15.01.2026 12:26 9,8 °C 10,6 °C 7,2 °C 95 % 1010,7 hPa 0,0 l/m² 0 min 0 min 134 W/m² 6,4 km/h (2 Bft) 97,87 %
15.01.2026 12:28 9,9 °C 10,6 °C 7,2 °C 95 % 1010,7 hPa 0,0 l/m² 0 min 0 min 140 W/m² 9,7 km/h (2 Bft) 97,92 %
15.01.2026 12:30 9,9 °C 11,1 °C 7,2 °C 95 % 1010,7 hPa 0,0 l/m² 0 min 0 min 141 W/m² 12,9 km/h (3 Bft) 97,78 %
15.01.2026 12:32 10,0 °C 11,1 °C 7,2 °C 95 % 1010,7 hPa 0,0 l/m² 0 min 0 min 136 W/m² 6,4 km/h (2 Bft) 97,83 %
15.01.2026 12:34 10,1 °C 11,1 °C 7,2 °C 94 % 1010,6 hPa 0,0 l/m² 0 min 0 min 135 W/m² 6,4 km/h (2 Bft) 96,55 %
15.01.2026 12:36 10,1 °C 11,1 °C 7,2 °C 95 % 1010,6 hPa 0,0 l/m² 0 min 0 min 141 W/m² 12,9 km/h (3 Bft) 97,44 %
15.01.2026 12:38 10,1 °C 11,1 °C 7,2 °C 94 % 1010,6 hPa 0,0 l/m² 0 min 0 min 147 W/m² 9,7 km/h (2 Bft) 93,62 %
15.01.2026 12:40 10,2 °C 11,1 °C 7,2 °C 94 % 1010,6 hPa 0,0 l/m² 0 min 0 min 148 W/m² 6,4 km/h (2 Bft) 95,74 %
15.01.2026 12:42 10,2 °C 11,1 °C 7,2 °C 94 % 1010,6 hPa 0,0 l/m² 0 min 0 min 118 W/m² 6,4 km/h (2 Bft) 97,73 %
15.01.2026 12:44 10,3 °C 11,1 °C 7,2 °C 94 % 1010,7 hPa 0,0 l/m² 0 min 0 min 88 W/m² 12,9 km/h (3 Bft) 98,00 %
15.01.2026 12:46 10,3 °C 11,1 °C 7,2 °C 94 % 1010,6 hPa 0,0 l/m² 0 min 0 min 78 W/m² 6,4 km/h (2 Bft) 95,35 %
15.01.2026 12:48 10,3 °C 10,6 °C 7,2 °C 93 % 1010,7 hPa 0,0 l/m² 0 min 0 min 69 W/m² 19,3 km/h (3 Bft) 95,74 %
15.01.2026 12:50 10,4 °C 10,6 °C 7,2 °C 93 % 1010,7 hPa 0,0 l/m² 0 min 0 min 72 W/m² 12,9 km/h (3 Bft) 95,83 %
15.01.2026 12:52 10,4 °C 10,6 °C 7,2 °C 93 % 1010,7 hPa 0,0 l/m² 0 min 0 min 85 W/m² 12,9 km/h (3 Bft) 95,74 %
15.01.2026 12:54 10,4 °C 10,6 °C 7,2 °C 93 % 1010,7 hPa 0,0 l/m² 0 min 0 min 91 W/m² 12,9 km/h (3 Bft) 95,56 %
15.01.2026 12:56 10,5 °C 10,6 °C 7,2 °C 92 % 1010,8 hPa 0,0 l/m² 0 min 0 min 82 W/m² 16,1 km/h (3 Bft) 94,83 %
15.01.2026 12:58 10,5 °C 10,6 °C 7,2 °C 92 % 1010,7 hPa 0,0 l/m² 0 min 0 min 73 W/m² 6,4 km/h (2 Bft) 95,65 %
15.01.2026 13:00 10,5 °C 10,6 °C 7,2 °C 92 % 1010,8 hPa 0,0 l/m² 0 min 0 min 87 W/m² 12,9 km/h (3 Bft) 97,50 %
15.01.2026 13:02 10,6 °C 10,6 °C 7,2 °C 91 % 1010,7 hPa 0,0 l/m² 0 min 0 min 71 W/m² 22,5 km/h (4 Bft) 97,87 %
15.01.2026 13:04 10,6 °C 10,6 °C 7,2 °C 91 % 1010,7 hPa 0,0 l/m² 0 min 0 min 58 W/m² 16,1 km/h (3 Bft) 97,92 %
15.01.2026 13:06 10,6 °C 10,6 °C 7,2 °C 91 % 1010,7 hPa 0,0 l/m² 0 min 0 min 52 W/m² 12,9 km/h (3 Bft) 96,36 %
15.01.2026 13:08 10,6 °C 10,6 °C 7,2 °C 90 % 1010,7 hPa 0,0 l/m² 0 min 0 min 44 W/m² 6,4 km/h (2 Bft) 97,14 %
15.01.2026 13:10 10,6 °C 10,6 °C 7,2 °C 90 % 1010,7 hPa 0,0 l/m² 0 min 0 min 49 W/m² 12,9 km/h (3 Bft) 98,00 %
15.01.2026 13:12 10,7 °C 10,6 °C 7,2 °C 90 % 1010,6 hPa 0,0 l/m² 0 min 0 min 54 W/m² 12,9 km/h (3 Bft) 95,74 %
15.01.2026 13:14 10,7 °C 10,6 °C 7,2 °C 90 % 1010,7 hPa 0,0 l/m² 0 min 0 min 45 W/m² 12,9 km/h (3 Bft) 97,78 %
15.01.2026 13:16 10,7 °C 10,6 °C 7,2 °C 90 % 1010,6 hPa 0,0 l/m² 0 min 0 min 46 W/m² 12,9 km/h (3 Bft) 97,73 %
15.01.2026 13:18 10,7 °C 10,6 °C 7,2 °C 90 % 1010,6 hPa 0,0 l/m² 0 min 0 min 33 W/m² 16,1 km/h (3 Bft) 95,74 %
15.01.2026 13:20 10,7 °C 10,6 °C 7,2 °C 90 % 1010,6 hPa 0,0 l/m² 0 min 0 min 31 W/m² 35,4 km/h (5 Bft) 94,23 %
15.01.2026 13:22 10,7 °C 10,6 °C 7,2 °C 89 % 1010,6 hPa 0,0 l/m² 0 min 0 min 33 W/m² 16,1 km/h (3 Bft) 97,83 %
15.01.2026 13:24 10,7 °C 10,6 °C 7,2 °C 89 % 1010,6 hPa 0,0 l/m² 0 min 0 min 40 W/m² 16,1 km/h (3 Bft) 100,00 %
15.01.2026 13:26 10,7 °C 10,6 °C 7,2 °C 89 % 1010,6 hPa 0,0 l/m² 0 min 0 min 42 W/m² 25,7 km/h (4 Bft) 97,83 %
15.01.2026 13:28 10,8 °C 10,6 °C 7,2 °C 89 % 1010,6 hPa 0,0 l/m² 0 min 0 min 48 W/m² 19,3 km/h (3 Bft) 97,87 %
15.01.2026 13:30 10,7 °C 10,6 °C 7,2 °C 89 % 1010,6 hPa 0,0 l/m² 0 min 0 min 47 W/m² 12,9 km/h (3 Bft) 93,48 %
15.01.2026 13:32 10,7 °C 10,6 °C 7,2 °C 89 % 1010,6 hPa 0,0 l/m² 0 min 0 min 43 W/m² 32,2 km/h (5 Bft) 97,83 %
15.01.2026 13:34 10,8 °C 10,6 °C 7,2 °C 89 % 1010,6 hPa 0,0 l/m² 0 min 0 min 39 W/m² 25,7 km/h (4 Bft) 97,78 %
15.01.2026 13:36 10,8 °C 10,6 °C 7,2 °C 89 % 1010,6 hPa 0,0 l/m² 0 min 0 min 41 W/m² 29,0 km/h (5 Bft) 98,04 %
15.01.2026 13:38 10,8 °C 10,6 °C 7,2 °C 88 % 1010,6 hPa 0,0 l/m² 0 min 0 min 47 W/m² 16,1 km/h (3 Bft) 97,87 %
15.01.2026 13:40 10,8 °C 10,6 °C 7,2 °C 88 % 1010,6 hPa 0,0 l/m² 0 min 0 min 50 W/m² 16,1 km/h (3 Bft) 97,87 %
15.01.2026 13:42 10,8 °C 10,6 °C 7,2 °C 88 % 1010,6 hPa 0,0 l/m² 0 min 0 min 58 W/m² 19,3 km/h (3 Bft) 97,87 %
15.01.2026 13:44 10,8 °C 10,6 °C 7,2 °C 88 % 1010,6 hPa 0,0 l/m² 0 min 0 min 62 W/m² 16,1 km/h (3 Bft) 97,78 %
15.01.2026 13:46 10,8 °C 10,6 °C 7,2 °C 89 % 1010,6 hPa 0,0 l/m² 0 min 0 min 62 W/m² 19,3 km/h (3 Bft) 95,56 %
15.01.2026 13:48 10,8 °C 10,6 °C 7,2 °C 89 % 1010,5 hPa 0,0 l/m² 0 min 0 min 59 W/m² 16,1 km/h (3 Bft) 98,00 %
15.01.2026 13:50 10,8 °C 10,6 °C 7,2 °C 89 % 1010,6 hPa 0,0 l/m² 0 min 0 min 51 W/m² 12,9 km/h (3 Bft) 97,87 %
15.01.2026 13:52 10,8 °C 10,6 °C 7,2 °C 89 % 1010,5 hPa 0,0 l/m² 0 min 0 min 44 W/m² 12,9 km/h (3 Bft) 93,62 %
15.01.2026 13:54 10,8 °C 10,6 °C 7,2 °C 89 % 1010,5 hPa 0,0 l/m² 0 min 0 min 56 W/m² 16,1 km/h (3 Bft) 97,87 %
15.01.2026 13:56 10,8 °C 10,6 °C 7,2 °C 89 % 1010,5 hPa 0,0 l/m² 0 min 0 min 57 W/m² 6,4 km/h (2 Bft) 97,78 %
15.01.2026 13:58 10,8 °C 10,6 °C 7,2 °C 89 % 1010,5 hPa 0,0 l/m² 0 min 0 min 44 W/m² 9,7 km/h (2 Bft) 95,56 %
15.01.2026 14:00 10,8 °C 10,6 °C 7,2 °C 89 % 1010,5 hPa 0,0 l/m² 0 min 0 min 40 W/m² 6,4 km/h (2 Bft) 98,21 %
15.01.2026 14:02 10,8 °C 10,6 °C 7,2 °C 89 % 1010,5 hPa 0,0 l/m² 0 min 0 min 42 W/m² 6,4 km/h (2 Bft) 95,12 %
15.01.2026 14:04 10,8 °C 10,6 °C 7,2 °C 89 % 1010,5 hPa 0,0 l/m² 0 min 0 min 39 W/m² 19,3 km/h (3 Bft) 97,87 %
15.01.2026 14:06 10,8 °C 10,0 °C 7,2 °C 89 % 1010,4 hPa 0,0 l/m² 0 min 0 min 33 W/m² 12,9 km/h (3 Bft) 97,73 %
15.01.2026 14:08 10,8 °C 10,0 °C 7,2 °C 89 % 1010,4 hPa 0,0 l/m² 0 min 0 min 33 W/m² 6,4 km/h (2 Bft) 98,00 %
15.01.2026 14:10 10,8 °C 10,0 °C 7,2 °C 89 % 1010,4 hPa 0,0 l/m² 0 min 0 min 34 W/m² 6,4 km/h (2 Bft) 95,74 %
15.01.2026 14:12 10,8 °C 10,0 °C 7,2 °C 89 % 1010,4 hPa 0,0 l/m² 0 min 0 min 40 W/m² 6,4 km/h (2 Bft) 97,87 %
15.01.2026 14:14 10,8 °C 10,0 °C 6,7 °C 89 % 1010,4 hPa 0,0 l/m² 0 min 0 min 37 W/m² 6,4 km/h (2 Bft) 100,00 %
15.01.2026 14:16 10,8 °C 10,0 °C 6,7 °C 89 % 1010,4 hPa 0,0 l/m² 0 min 0 min 27 W/m² 16,1 km/h (3 Bft) 100,00 %
15.01.2026 14:18 10,8 °C 10,0 °C 6,7 °C 89 % 1010,4 hPa 0,0 l/m² 0 min 0 min 26 W/m² 9,7 km/h (2 Bft) 100,00 %
15.01.2026 14:21 10,8 °C 10,0 °C 6,7 °C 89 % 1010,3 hPa 0,0 l/m² 0 min 0 min 24 W/m² 9,7 km/h (2 Bft) 98,57 %
15.01.2026 14:22 10,8 °C 10,0 °C 6,7 °C 89 % 1010,3 hPa 0,0 l/m² 0 min 0 min 19 W/m² 12,9 km/h (3 Bft) 100,00 %
15.01.2026 14:26 10,7 °C 10,0 °C 6,7 °C 89 % 1010,3 hPa 0,0 l/m² 0 min 0 min 19 W/m² 9,7 km/h (2 Bft) 100,00 %
15.01.2026 14:28 10,7 °C 10,0 °C 6,7 °C 89 % 1010,3 hPa 0,0 l/m² 0 min 0 min 25 W/m² 9,7 km/h (2 Bft) 100,00 %
15.01.2026 14:30 10,7 °C 10,0 °C 6,7 °C 89 % 1010,2 hPa 0,0 l/m² 0 min 0 min 27 W/m² 6,4 km/h (2 Bft) 95,74 %
15.01.2026 14:32 10,7 °C 10,0 °C 6,7 °C 89 % 1010,3 hPa 0,0 l/m² 0 min 0 min 30 W/m² 9,7 km/h (2 Bft) 100,00 %
15.01.2026 14:34 10,7 °C 10,0 °C 6,7 °C 90 % 1010,3 hPa 0,0 l/m² 0 min 0 min 38 W/m² 16,1 km/h (3 Bft) 100,00 %
15.01.2026 14:36 10,7 °C 10,0 °C 6,7 °C 90 % 1010,3 hPa 0,0 l/m² 0 min 0 min 48 W/m² 22,5 km/h (4 Bft) 100,00 %
15.01.2026 14:38 10,6 °C 10,0 °C 6,7 °C 90 % 1010,2 hPa 0,0 l/m² 0 min 0 min 37 W/m² 16,1 km/h (3 Bft) 100,00 %
15.01.2026 14:40 10,6 °C 10,0 °C 6,7 °C 90 % 1010,3 hPa 0,0 l/m² 0 min 0 min 31 W/m² 16,1 km/h (3 Bft) 95,74 %
15.01.2026 14:42 10,6 °C 10,0 °C 6,7 °C 89 % 1010,3 hPa 0,0 l/m² 0 min 0 min 23 W/m² 12,9 km/h (3 Bft) 100,00 %
15.01.2026 14:44 10,6 °C 10,0 °C 6,7 °C 89 % 1010,3 hPa 0,0 l/m² 0 min 0 min 23 W/m² 12,9 km/h (3 Bft) 100,00 %
15.01.2026 14:46 10,6 °C 10,0 °C 6,7 °C 89 % 1010,3 hPa 0,0 l/m² 0 min 0 min 26 W/m² 19,3 km/h (3 Bft) 100,00 %
15.01.2026 14:48 10,6 °C 10,0 °C 6,7 °C 89 % 1010,2 hPa 0,0 l/m² 0 min 0 min 38 W/m² 22,5 km/h (4 Bft) 97,92 %
15.01.2026 14:50 10,6 °C 10,0 °C 6,7 °C 89 % 1010,1 hPa 0,0 l/m² 0 min 0 min 42 W/m² 19,3 km/h (3 Bft) 97,78 %
15.01.2026 14:52 10,5 °C 10,0 °C 6,7 °C 89 % 1010,1 hPa 0,0 l/m² 0 min 0 min 46 W/m² 25,7 km/h (4 Bft) 95,45 %
15.01.2026 14:54 10,5 °C 10,0 °C 6,7 °C 89 % 1010,0 hPa 0,0 l/m² 0 min 0 min 47 W/m² 12,9 km/h (3 Bft) 96,23 %
15.01.2026 14:56 10,5 °C 10,0 °C 6,7 °C 89 % 1010,0 hPa 0,0 l/m² 0 min 0 min 44 W/m² 25,7 km/h (4 Bft) 95,65 %
15.01.2026 14:58 10,5 °C 10,0 °C 6,7 °C 89 % 1010,0 hPa 0,0 l/m² 0 min 0 min 50 W/m² 16,1 km/h (3 Bft) 93,62 %
15.01.2026 15:00 10,5 °C 10,0 °C 6,7 °C 89 % 1010,0 hPa 0,0 l/m² 0 min 0 min 58 W/m² 22,5 km/h (4 Bft) 100,00 %
15.01.2026 15:02 10,5 °C 10,0 °C 6,7 °C 89 % 1010,0 hPa 0,0 l/m² 0 min 0 min 54 W/m² 12,9 km/h (3 Bft) 92,86 %
15.01.2026 15:04 10,4 °C 10,0 °C 6,7 °C 89 % 1010,1 hPa 0,0 l/m² 0 min 0 min 49 W/m² 25,7 km/h (4 Bft) 91,84 %
15.01.2026 15:06 10,5 °C 10,0 °C 6,7 °C 88 % 1010,1 hPa 0,0 l/m² 0 min 0 min 44 W/m² 16,1 km/h (3 Bft) 94,55 %
15.01.2026 15:08 10,5 °C 10,0 °C 6,7 °C 88 % 1010,0 hPa 0,0 l/m² 0 min 0 min 38 W/m² 19,3 km/h (3 Bft) 94,59 %
15.01.2026 15:10 10,5 °C 10,0 °C 6,7 °C 88 % 1010,0 hPa 0,0 l/m² 0 min 0 min 37 W/m² 16,1 km/h (3 Bft) 95,65 %
15.01.2026 15:12 10,5 °C 10,0 °C 6,7 °C 88 % 1010,0 hPa 0,0 l/m² 0 min 0 min 37 W/m² 12,9 km/h (3 Bft) 95,65 %
15.01.2026 15:14 10,5 °C 10,0 °C 6,7 °C 88 % 1010,0 hPa 0,0 l/m² 0 min 0 min 39 W/m² 6,4 km/h (2 Bft) 95,00 %
15.01.2026 15:16 10,5 °C 10,0 °C 6,7 °C 88 % 1010,0 hPa 0,0 l/m² 0 min 0 min 39 W/m² 9,7 km/h (2 Bft) 94,92 %
15.01.2026 15:18 10,5 °C 10,0 °C 6,7 °C 88 % 1009,9 hPa 0,0 l/m² 0 min 0 min 35 W/m² 16,1 km/h (3 Bft) 95,65 %
15.01.2026 15:20 10,5 °C 10,0 °C 6,7 °C 88 % 1010,0 hPa 0,0 l/m² 0 min 0 min 30 W/m² 22,5 km/h (4 Bft) 97,87 %
15.01.2026 15:22 10,5 °C 10,0 °C 6,7 °C 88 % 1010,0 hPa 0,0 l/m² 0 min 0 min 27 W/m² 12,9 km/h (3 Bft) 97,83 %
15.01.2026 15:24 10,5 °C 10,0 °C 6,7 °C 88 % 1010,0 hPa 0,0 l/m² 0 min 0 min 25 W/m² 16,1 km/h (3 Bft) 95,45 %
15.01.2026 15:26 10,5 °C 10,0 °C 6,7 °C 88 % 1010,0 hPa 0,0 l/m² 0 min 0 min 21 W/m² 16,1 km/h (3 Bft) 97,78 %
15.01.2026 15:28 10,5 °C 10,0 °C 6,7 °C 88 % 1010,0 hPa 0,0 l/m² 0 min 0 min 24 W/m² 16,1 km/h (3 Bft) 96,23 %
15.01.2026 15:30 10,5 °C 10,0 °C 6,7 °C 88 % 1010,0 hPa 0,0 l/m² 0 min 0 min 27 W/m² 19,3 km/h (3 Bft) 97,83 %
15.01.2026 15:32 10,5 °C 10,0 °C 6,7 °C 87 % 1010,0 hPa 0,0 l/m² 0 min 0 min 28 W/m² 16,1 km/h (3 Bft) 95,65 %
15.01.2026 15:34 10,5 °C 10,0 °C 6,7 °C 87 % 1010,0 hPa 0,0 l/m² 0 min 0 min 23 W/m² 19,3 km/h (3 Bft) 95,35 %
15.01.2026 15:36 10,5 °C 10,0 °C 6,7 °C 87 % 1010,0 hPa 0,0 l/m² 0 min 0 min 19 W/m² 12,9 km/h (3 Bft) 98,08 %
15.01.2026 15:38 10,5 °C 10,0 °C 6,7 °C 87 % 1010,0 hPa 0,0 l/m² 0 min 0 min 16 W/m² 16,1 km/h (3 Bft) 97,87 %
15.01.2026 15:40 10,4 °C 10,0 °C 6,7 °C 87 % 1010,0 hPa 0,0 l/m² 0 min 0 min 16 W/m² 16,1 km/h (3 Bft) 97,78 %
15.01.2026 15:42 10,4 °C 10,0 °C 6,7 °C 87 % 1010,0 hPa 0,0 l/m² 0 min 0 min 18 W/m² 16,1 km/h (3 Bft) 97,67 %
15.01.2026 15:44 10,4 °C 10,0 °C 6,7 °C 87 % 1009,9 hPa 0,0 l/m² 0 min 0 min 20 W/m² 12,9 km/h (3 Bft) 98,08 %
15.01.2026 15:46 10,4 °C 10,0 °C 6,7 °C 87 % 1009,8 hPa 0,0 l/m² 0 min 0 min 22 W/m² 12,9 km/h (3 Bft) 100,00 %
15.01.2026 15:48 10,4 °C 10,0 °C 6,7 °C 86 % 1009,9 hPa 0,0 l/m² 0 min 0 min 24 W/m² 12,9 km/h (3 Bft) 97,78 %
15.01.2026 15:50 10,4 °C 10,0 °C 6,7 °C 86 % 1009,9 hPa 0,0 l/m² 0 min 0 min 27 W/m² 12,9 km/h (3 Bft) 100,00 %
15.01.2026 15:52 10,4 °C 10,0 °C 6,7 °C 86 % 1009,9 hPa 0,0 l/m² 0 min 0 min 29 W/m² 16,1 km/h (3 Bft) 98,08 %
15.01.2026 15:54 10,4 °C 10,0 °C 6,7 °C 86 % 1009,9 hPa 0,0 l/m² 0 min 0 min 34 W/m² 22,5 km/h (4 Bft) 100,00 %
15.01.2026 15:56 10,4 °C 10,0 °C 6,7 °C 86 % 1009,9 hPa 0,0 l/m² 0 min 0 min 38 W/m² 12,9 km/h (3 Bft) 95,56 %
15.01.2026 15:58 10,4 °C 10,0 °C 6,7 °C 86 % 1009,9 hPa 0,0 l/m² 0 min 0 min 39 W/m² 12,9 km/h (3 Bft) 97,73 %
15.01.2026 16:00 10,4 °C 10,0 °C 6,7 °C 86 % 1009,9 hPa 0,0 l/m² 0 min 0 min 42 W/m² 22,5 km/h (4 Bft) 100,00 %
15.01.2026 16:02 10,4 °C 10,0 °C 6,7 °C 86 % 1009,9 hPa 0,0 l/m² 0 min 0 min 38 W/m² 9,7 km/h (2 Bft) 97,87 %
15.01.2026 16:04 10,4 °C 10,0 °C 6,7 °C 86 % 1009,9 hPa 0,0 l/m² 0 min 0 min 32 W/m² 16,1 km/h (3 Bft) 100,00 %
15.01.2026 16:06 10,4 °C 10,0 °C 6,7 °C 86 % 1009,9 hPa 0,0 l/m² 0 min 0 min 33 W/m² 16,1 km/h (3 Bft) 100,00 %
15.01.2026 16:08 10,4 °C 10,0 °C 6,7 °C 86 % 1009,9 hPa 0,0 l/m² 0 min 0 min 35 W/m² 19,3 km/h (3 Bft) 95,83 %
15.01.2026 16:10 10,4 °C 10,0 °C 6,7 °C 85 % 1009,9 hPa 0,0 l/m² 0 min 0 min 34 W/m² 16,1 km/h (3 Bft) 100,00 %
15.01.2026 16:12 10,4 °C 10,0 °C 6,7 °C 85 % 1009,9 hPa 0,0 l/m² 0 min 0 min 33 W/m² 12,9 km/h (3 Bft) 98,08 %
15.01.2026 16:14 10,4 °C 10,0 °C 6,7 °C 85 % 1009,9 hPa 0,0 l/m² 0 min 0 min 33 W/m² 25,7 km/h (4 Bft) 97,87 %
15.01.2026 16:16 10,4 °C 10,0 °C 6,7 °C 85 % 1009,9 hPa 0,0 l/m² 0 min 0 min 28 W/m² 19,3 km/h (3 Bft) 95,35 %
15.01.2026 16:18 10,4 °C 10,0 °C 6,7 °C 85 % 1009,9 hPa 0,0 l/m² 0 min 0 min 22 W/m² 16,1 km/h (3 Bft) 97,44 %
15.01.2026 16:20 10,4 °C 10,0 °C 6,7 °C 84 % 1009,9 hPa 0,0 l/m² 0 min 0 min 18 W/m² 22,5 km/h (4 Bft) 98,28 %
15.01.2026 16:22 10,5 °C 10,0 °C 6,7 °C 84 % 1009,9 hPa 0,0 l/m² 0 min 0 min 14 W/m² 12,9 km/h (3 Bft) 97,87 %
15.01.2026 16:24 10,5 °C 10,0 °C 6,7 °C 84 % 1009,9 hPa 0,0 l/m² 0 min 0 min 17 W/m² 12,9 km/h (3 Bft) 97,73 %
15.01.2026 16:26 10,5 °C 10,0 °C 6,7 °C 84 % 1009,9 hPa 0,0 l/m² 0 min 0 min 15 W/m² 12,9 km/h (3 Bft) 95,45 %
15.01.2026 16:28 10,6 °C 10,0 °C 6,7 °C 84 % 1009,9 hPa 0,0 l/m² 0 min 0 min 12 W/m² 12,9 km/h (3 Bft) 97,56 %
15.01.2026 16:30 10,6 °C 10,0 °C 6,7 °C 84 % 1009,8 hPa 0,0 l/m² 0 min 0 min 12 W/m² 16,1 km/h (3 Bft) 96,55 %
15.01.2026 16:32 10,6 °C 10,0 °C 6,7 °C 83 % 1009,9 hPa 0,0 l/m² 0 min 0 min 11 W/m² 12,9 km/h (3 Bft) 95,74 %
15.01.2026 16:34 10,6 °C 10,0 °C 6,7 °C 83 % 1009,8 hPa 0,0 l/m² 0 min 0 min 10 W/m² 12,9 km/h (3 Bft) 97,73 %
15.01.2026 16:36 10,6 °C 10,0 °C 6,7 °C 83 % 1009,8 hPa 0,0 l/m² 0 min 0 min 8 W/m² 9,7 km/h (2 Bft) 97,37 %
15.01.2026 16:38 10,6 °C 10,0 °C 6,7 °C 83 % 1009,9 hPa 0,0 l/m² 0 min 0 min 5 W/m² 12,9 km/h (3 Bft) 96,61 %
15.01.2026 16:40 10,6 °C 10,0 °C 6,7 °C 83 % 1009,9 hPa 0,0 l/m² 0 min 0 min 2 W/m² 22,5 km/h (4 Bft) 97,87 %
15.01.2026 16:42 10,5 °C 10,0 °C 6,7 °C 83 % 1009,9 hPa 0,0 l/m² 0 min 0 min 0 W/m² 12,9 km/h (3 Bft) 95,65 %
15.01.2026 16:44 10,5 °C 10,0 °C 6,7 °C 83 % 1009,9 hPa 0,0 l/m² 0 min 0 min 0 W/m² 16,1 km/h (3 Bft) 95,65 %
15.01.2026 16:46 10,5 °C 10,0 °C 6,7 °C 83 % 1009,9 hPa 0,0 l/m² 0 min 0 min 0 W/m² 12,9 km/h (3 Bft) 93,18 %
15.01.2026 16:48 10,5 °C 10,0 °C 6,7 °C 83 % 1010,0 hPa 0,0 l/m² 0 min 0 min 0 W/m² 12,9 km/h (3 Bft) 94,87 %
15.01.2026 16:50 10,5 °C 10,0 °C 6,7 °C 83 % 1009,9 hPa 0,0 l/m² 0 min 0 min 0 W/m² 16,1 km/h (3 Bft) 95,74 %
15.01.2026 16:52 10,5 °C 10,0 °C 6,1 °C 83 % 1009,9 hPa 0,0 l/m² 0 min 0 min 0 W/m² 12,9 km/h (3 Bft) 96,23 %
15.01.2026 16:54 10,5 °C 10,0 °C 6,1 °C 83 % 1009,9 hPa 0,0 l/m² 0 min 0 min 0 W/m² 9,7 km/h (2 Bft) 95,12 %
15.01.2026 16:56 10,5 °C 10,0 °C 6,1 °C 82 % 1009,9 hPa 0,0 l/m² 0 min 0 min 0 W/m² 22,5 km/h (4 Bft) 96,55 %
15.01.2026 16:58 10,5 °C 10,0 °C 6,1 °C 82 % 1009,9 hPa 0,0 l/m² 0 min 0 min 0 W/m² 19,3 km/h (3 Bft) 95,74 %
15.01.2026 17:00 10,5 °C 10,0 °C 6,1 °C 82 % 1009,8 hPa 0,0 l/m² 0 min 0 min 0 W/m² 9,7 km/h (2 Bft) 95,65 %
15.01.2026 17:02 10,5 °C 10,0 °C 6,1 °C 83 % 1009,8 hPa 0,0 l/m² 0 min 0 min 0 W/m² 12,9 km/h (3 Bft) 95,65 %
15.01.2026 17:04 10,4 °C 10,0 °C 6,1 °C 82 % 1009,9 hPa 0,0 l/m² 0 min 0 min 0 W/m² 19,3 km/h (3 Bft) 100,00 %
15.01.2026 17:06 10,4 °C 10,0 °C 6,1 °C 83 % 1009,8 hPa 0,0 l/m² 0 min 0 min 0 W/m² 12,9 km/h (3 Bft) 98,28 %
15.01.2026 17:08 10,4 °C 10,0 °C 6,1 °C 83 % 1009,8 hPa 0,0 l/m² 0 min 0 min 0 W/m² 19,3 km/h (3 Bft) 95,74 %
15.01.2026 17:10 10,4 °C 10,0 °C 6,1 °C 83 % 1009,8 hPa 0,0 l/m² 0 min 0 min 0 W/m² 19,3 km/h (3 Bft) 97,78 %
15.01.2026 17:12 10,4 °C 10,0 °C 6,1 °C 83 % 1009,9 hPa 0,0 l/m² 0 min 0 min 0 W/m² 12,9 km/h (3 Bft) 97,78 %
15.01.2026 17:14 10,4 °C 10,0 °C 6,1 °C 83 % 1009,8 hPa 0,0 l/m² 0 min 0 min 0 W/m² 16,1 km/h (3 Bft) 96,08 %
15.01.2026 17:16 10,4 °C 9,4 °C 6,1 °C 83 % 1009,8 hPa 0,0 l/m² 0 min 0 min 0 W/m² 12,9 km/h (3 Bft) 97,67 %
15.01.2026 17:18 10,4 °C 10,0 °C 6,1 °C 83 % 1009,8 hPa 0,0 l/m² 0 min 0 min 0 W/m² 12,9 km/h (3 Bft) 100,00 %
15.01.2026 17:20 10,4 °C 9,4 °C 6,1 °C 83 % 1009,8 hPa 0,0 l/m² 0 min 0 min 0 W/m² 12,9 km/h (3 Bft) 98,28 %
15.01.2026 17:22 10,4 °C 9,4 °C 6,1 °C 83 % 1009,7 hPa 0,0 l/m² 0 min 0 min 0 W/m² 6,4 km/h (2 Bft) 97,78 %
15.01.2026 17:24 10,4 °C 9,4 °C 6,1 °C 83 % 1009,8 hPa 0,0 l/m² 0 min 0 min 0 W/m² 16,1 km/h (3 Bft) 100,00 %
15.01.2026 17:26 10,3 °C 9,4 °C 6,1 °C 83 % 1009,8 hPa 0,0 l/m² 0 min 0 min 0 W/m² 16,1 km/h (3 Bft) 100,00 %
15.01.2026 17:28 10,3 °C 9,4 °C 6,1 °C 83 % 1009,8 hPa 0,0 l/m² 0 min 0 min 0 W/m² 9,7 km/h (2 Bft) 100,00 %
15.01.2026 17:30 10,3 °C 9,4 °C 6,1 °C 83 % 1009,8 hPa 0,0 l/m² 0 min 0 min 0 W/m² 12,9 km/h (3 Bft) 100,00 %
15.01.2026 17:32 10,3 °C 9,4 °C 6,1 °C 83 % 1009,8 hPa 0,0 l/m² 0 min 0 min 0 W/m² 12,9 km/h (3 Bft) 100,00 %
15.01.2026 17:34 10,3 °C 9,4 °C 6,1 °C 83 % 1009,8 hPa 0,0 l/m² 0 min 0 min 0 W/m² 12,9 km/h (3 Bft) 100,00 %
15.01.2026 17:36 10,3 °C 9,4 °C 6,1 °C 83 % 1009,7 hPa 0,0 l/m² 0 min 0 min 0 W/m² 16,1 km/h (3 Bft) 100,00 %
15.01.2026 17:38 10,3 °C 9,4 °C 6,1 °C 83 % 1009,7 hPa 0,0 l/m² 0 min 0 min 0 W/m² 12,9 km/h (3 Bft) 100,00 %
15.01.2026 17:40 10,3 °C 9,4 °C 6,1 °C 83 % 1009,6 hPa 0,0 l/m² 0 min 0 min 0 W/m² 16,1 km/h (3 Bft) 100,00 %
15.01.2026 17:42 10,3 °C 9,4 °C 6,1 °C 83 % 1009,6 hPa 0,0 l/m² 0 min 0 min 0 W/m² 12,9 km/h (3 Bft) 100,00 %
15.01.2026 17:44 10,2 °C 9,4 °C 6,1 °C 83 % 1009,6 hPa 0,0 l/m² 0 min 0 min 0 W/m² 19,3 km/h (3 Bft) 100,00 %
15.01.2026 17:46 10,2 °C 9,4 °C 6,1 °C 83 % 1009,6 hPa 0,0 l/m² 0 min 0 min 0 W/m² 12,9 km/h (3 Bft) 100,00 %
15.01.2026 17:48 10,2 °C 9,4 °C 6,1 °C 83 % 1009,6 hPa 0,0 l/m² 0 min 0 min 0 W/m² 16,1 km/h (3 Bft) 93,88 %
15.01.2026 17:50 10,2 °C 9,4 °C 6,1 °C 83 % 1009,5 hPa 0,0 l/m² 0 min 0 min 0 W/m² 12,9 km/h (3 Bft) 98,00 %
15.01.2026 17:52 10,2 °C 9,4 °C 6,1 °C 83 % 1009,5 hPa 0,0 l/m² 0 min 0 min 0 W/m² 16,1 km/h (3 Bft) 97,83 %
15.01.2026 17:54 10,2 °C 9,4 °C 6,1 °C 83 % 1009,5 hPa 0,0 l/m² 0 min 0 min 0 W/m² 16,1 km/h (3 Bft) 97,67 %
15.01.2026 17:56 10,2 °C 9,4 °C 6,1 °C 83 % 1009,5 hPa 0,0 l/m² 0 min 0 min 0 W/m² 16,1 km/h (3 Bft) 97,92 %
15.01.2026 17:58 10,2 °C 9,4 °C 6,1 °C 83 % 1009,5 hPa 0,0 l/m² 0 min 0 min 0 W/m² 16,1 km/h (3 Bft) 97,83 %
15.01.2026 18:00 10,2 °C 9,4 °C 6,1 °C 83 % 1009,5 hPa 0,0 l/m² 0 min 0 min 0 W/m² 16,1 km/h (3 Bft) 95,74 %
15.01.2026 18:02 10,2 °C 9,4 °C 6,1 °C 83 % 1009,4 hPa 0,0 l/m² 0 min 0 min 0 W/m² 22,5 km/h (4 Bft) 97,87 %
15.01.2026 18:04 10,2 °C 9,4 °C 6,1 °C 83 % 1009,4 hPa 0,0 l/m² 0 min 0 min 0 W/m² 16,1 km/h (3 Bft) 97,87 %
15.01.2026 18:07 10,2 °C 9,4 °C 6,1 °C 83 % 1009,4 hPa 0,0 l/m² 0 min 0 min 0 W/m² 19,3 km/h (3 Bft) 97,87 %
15.01.2026 18:08 10,2 °C 9,4 °C 6,1 °C 83 % 1009,4 hPa 0,0 l/m² 0 min 0 min 0 W/m² 19,3 km/h (3 Bft) 95,83 %
15.01.2026 18:10 10,2 °C 9,4 °C 6,1 °C 83 % 1009,5 hPa 0,0 l/m² 0 min 0 min 0 W/m² 22,5 km/h (4 Bft) 97,83 %
15.01.2026 18:12 10,2 °C 9,4 °C 5,6 °C 83 % 1009,5 hPa 0,0 l/m² 0 min 0 min 0 W/m² 12,9 km/h (3 Bft) 95,74 %
15.01.2026 18:14 10,1 °C 9,4 °C 5,6 °C 83 % 1009,5 hPa 0,0 l/m² 0 min 0 min 0 W/m² 12,9 km/h (3 Bft) 97,78 %
15.01.2026 18:16 10,1 °C 9,4 °C 5,6 °C 83 % 1009,5 hPa 0,0 l/m² 0 min 0 min 0 W/m² 16,1 km/h (3 Bft) 93,62 %
15.01.2026 18:18 10,1 °C 9,4 °C 5,6 °C 83 % 1009,5 hPa 0,0 l/m² 0 min 0 min 0 W/m² 16,1 km/h (3 Bft) 95,65 %
15.01.2026 18:20 10,1 °C 9,4 °C 5,6 °C 84 % 1009,4 hPa 0,0 l/m² 0 min 0 min 0 W/m² 16,1 km/h (3 Bft) 97,50 %
15.01.2026 18:22 10,1 °C 9,4 °C 5,6 °C 84 % 1009,4 hPa 0,0 l/m² 0 min 0 min 0 W/m² 12,9 km/h (3 Bft) 97,87 %
15.01.2026 18:24 10,1 °C 9,4 °C 5,6 °C 84 % 1009,5 hPa 0,0 l/m² 0 min 0 min 0 W/m² 16,1 km/h (3 Bft) 94,92 %
15.01.2026 18:26 10,1 °C 9,4 °C 5,6 °C 84 % 1009,4 hPa 0,0 l/m² 0 min 0 min 0 W/m² 16,1 km/h (3 Bft) 95,65 %
15.01.2026 18:28 10,1 °C 9,4 °C 5,6 °C 84 % 1009,4 hPa 0,0 l/m² 0 min 0 min 0 W/m² 16,1 km/h (3 Bft) 97,87 %
15.01.2026 18:30 10,1 °C 8,9 °C 5,6 °C 84 % 1009,4 hPa 0,0 l/m² 0 min 0 min 0 W/m² 6,4 km/h (2 Bft) 94,29 %
15.01.2026 18:32 10,0 °C 8,9 °C 5,6 °C 84 % 1009,4 hPa 0,0 l/m² 0 min 0 min 0 W/m² 12,9 km/h (3 Bft) 97,87 %
15.01.2026 18:34 10,0 °C 8,9 °C 5,6 °C 84 % 1009,4 hPa 0,0 l/m² 0 min 0 min 0 W/m² 16,1 km/h (3 Bft) 96,61 %
15.01.2026 18:36 9,9 °C 8,9 °C 5,6 °C 85 % 1009,5 hPa 0,0 l/m² 0 min 0 min 0 W/m² 12,9 km/h (3 Bft) 97,56 %
15.01.2026 18:38 9,9 °C 8,9 °C 5,6 °C 85 % 1009,4 hPa 0,0 l/m² 0 min 0 min 0 W/m² 12,9 km/h (3 Bft) 96,00 %
15.01.2026 18:40 9,9 °C 8,9 °C 5,6 °C 85 % 1009,3 hPa 0,0 l/m² 0 min 0 min 0 W/m² 12,9 km/h (3 Bft) 97,96 %
15.01.2026 18:42 9,9 °C 8,9 °C 5,6 °C 85 % 1009,3 hPa 0,0 l/m² 0 min 0 min 0 W/m² 22,5 km/h (4 Bft) 97,87 %
15.01.2026 18:44 9,8 °C 8,9 °C 5,6 °C 86 % 1009,2 hPa 0,0 l/m² 0 min 0 min 0 W/m² 12,9 km/h (3 Bft) 95,65 %
15.01.2026 18:46 9,8 °C 8,9 °C 5,6 °C 86 % 1009,3 hPa 0,0 l/m² 0 min 0 min 0 W/m² 16,1 km/h (3 Bft) 95,24 %
15.01.2026 18:48 9,8 °C 8,9 °C 5,6 °C 86 % 1009,2 hPa 0,0 l/m² 0 min 0 min 0 W/m² 16,1 km/h (3 Bft) 97,56 %
15.01.2026 18:50 9,8 °C 8,9 °C 5,6 °C 86 % 1009,2 hPa 0,0 l/m² 0 min 0 min 0 W/m² 22,5 km/h (4 Bft) 98,11 %
15.01.2026 18:52 9,8 °C 8,9 °C 5,6 °C 86 % 1009,2 hPa 0,0 l/m² 0 min 0 min 0 W/m² 25,7 km/h (4 Bft) 95,74 %
15.01.2026 18:54 9,7 °C 8,9 °C 5,6 °C 87 % 1009,2 hPa 0,0 l/m² 0 min 0 min 0 W/m² 16,1 km/h (3 Bft) 97,87 %
15.01.2026 18:56 9,7 °C 8,9 °C 5,6 °C 87 % 1009,1 hPa 0,0 l/m² 0 min 0 min 0 W/m² 19,3 km/h (3 Bft) 95,92 %
15.01.2026 18:58 9,7 °C 8,9 °C 5,6 °C 87 % 1009,2 hPa 0,0 l/m² 0 min 0 min 0 W/m² 12,9 km/h (3 Bft) 92,11 %
15.01.2026 19:00 9,7 °C 8,9 °C 5,6 °C 87 % 1009,2 hPa 0,0 l/m² 0 min 0 min 0 W/m² 25,7 km/h (4 Bft) 96,49 %
15.01.2026 19:02 9,7 °C 8,9 °C 5,6 °C 87 % 1009,2 hPa 0,0 l/m² 0 min 0 min 0 W/m² 12,9 km/h (3 Bft) 94,59 %
15.01.2026 19:04 9,7 °C 8,9 °C 5,0 °C 87 % 1009,2 hPa 0,0 l/m² 0 min 0 min 0 W/m² 12,9 km/h (3 Bft) 95,74 %
15.01.2026 19:08 9,6 °C 8,9 °C 5,0 °C 87 % 1009,2 hPa 0,0 l/m² 0 min 0 min 0 W/m² 16,1 km/h (3 Bft) 94,95 %
15.01.2026 19:10 9,6 °C 8,9 °C 5,0 °C 87 % 1009,2 hPa 0,0 l/m² 0 min 0 min 0 W/m² 25,7 km/h (4 Bft) 96,08 %
15.01.2026 19:12 9,6 °C 8,9 °C 5,0 °C 87 % 1009,2 hPa 0,0 l/m² 0 min 0 min 0 W/m² 16,1 km/h (3 Bft) 97,30 %
15.01.2026 19:14 9,6 °C 8,9 °C 5,0 °C 87 % 1009,2 hPa 0,0 l/m² 0 min 0 min 0 W/m² 16,1 km/h (3 Bft) 98,00 %
15.01.2026 19:16 9,6 °C 8,3 °C 5,0 °C 87 % 1009,2 hPa 0,0 l/m² 0 min 0 min 0 W/m² 12,9 km/h (3 Bft) 97,83 %
15.01.2026 19:18 9,6 °C 8,3 °C 5,0 °C 88 % 1009,1 hPa 0,0 l/m² 0 min 0 min 0 W/m² 19,3 km/h (3 Bft) 100,00 %
15.01.2026 19:20 9,5 °C 8,3 °C 5,0 °C 88 % 1009,1 hPa 0,0 l/m² 0 min 0 min 0 W/m² 29,0 km/h (5 Bft) 97,44 %
15.01.2026 19:22 9,5 °C 8,3 °C 5,0 °C 88 % 1009,0 hPa 0,0 l/m² 0 min 0 min 0 W/m² 12,9 km/h (3 Bft) 97,83 %
15.01.2026 19:26 9,4 °C 8,9 °C 5,0 °C 88 % 1009,0 hPa 0,0 l/m² 0 min 0 min 0 W/m² 25,7 km/h (4 Bft) 96,84 %
15.01.2026 19:27 9,4 °C 8,9 °C 5,0 °C 88 % 1009,0 hPa 0,0 l/m² 0 min 0 min 0 W/m² 12,9 km/h (3 Bft) 95,65 %
15.01.2026 19:28 9,4 °C 8,9 °C 5,0 °C 88 % 1009,0 hPa 0,0 l/m² 0 min 0 min 0 W/m² 16,1 km/h (3 Bft) 95,65 %
15.01.2026 19:32 9,4 °C 8,9 °C 5,0 °C 88 % 1009,0 hPa 0,0 l/m² 0 min 0 min 0 W/m² 12,9 km/h (3 Bft) 97,87 %
15.01.2026 19:34 9,4 °C 8,9 °C 5,0 °C 88 % 1009,0 hPa 0,0 l/m² 0 min 0 min 0 W/m² 16,1 km/h (3 Bft) 97,87 %
15.01.2026 19:36 9,4 °C 8,9 °C 5,0 °C 88 % 1009,0 hPa 0,0 l/m² 0 min 0 min 0 W/m² 12,9 km/h (3 Bft) 98,18 %
15.01.2026 19:38 9,4 °C 8,9 °C 5,0 °C 88 % 1009,0 hPa 0,0 l/m² 0 min 0 min 0 W/m² 16,1 km/h (3 Bft) 97,92 %
15.01.2026 19:40 9,4 °C 8,9 °C 5,0 °C 88 % 1009,0 hPa 0,0 l/m² 0 min 0 min 0 W/m² 12,9 km/h (3 Bft) 94,59 %
15.01.2026 19:42 9,4 °C 8,9 °C 5,0 °C 88 % 1008,9 hPa 0,0 l/m² 0 min 0 min 0 W/m² 16,1 km/h (3 Bft) 97,78 %
15.01.2026 19:44 9,4 °C 8,9 °C 5,0 °C 88 % 1008,9 hPa 0,0 l/m² 0 min 0 min 0 W/m² 16,1 km/h (3 Bft) 97,96 %
15.01.2026 19:46 9,4 °C 8,9 °C 5,0 °C 88 % 1008,9 hPa 0,0 l/m² 0 min 0 min 0 W/m² 16,1 km/h (3 Bft) 100,00 %
15.01.2026 19:48 9,4 °C 8,9 °C 5,0 °C 88 % 1009,0 hPa 0,0 l/m² 0 min 0 min 0 W/m² 19,3 km/h (3 Bft) 97,22 %
15.01.2026 19:50 9,4 °C 8,9 °C 5,0 °C 88 % 1008,9 hPa 0,0 l/m² 0 min 0 min 0 W/m² 19,3 km/h (3 Bft) 100,00 %
15.01.2026 19:52 9,4 °C 8,9 °C 5,0 °C 88 % 1009,0 hPa 0,0 l/m² 0 min 0 min 0 W/m² 22,5 km/h (4 Bft) 98,15 %
15.01.2026 19:54 9,4 °C 8,9 °C 5,0 °C 88 % 1009,0 hPa 0,0 l/m² 0 min 0 min 0 W/m² 19,3 km/h (3 Bft) 100,00 %
15.01.2026 19:56 9,4 °C 8,9 °C 5,0 °C 88 % 1008,9 hPa 0,0 l/m² 0 min 0 min 0 W/m² 22,5 km/h (4 Bft) 100,00 %
15.01.2026 19:58 9,4 °C 8,9 °C 5,6 °C 88 % 1009,0 hPa 0,0 l/m² 0 min 0 min 0 W/m² 19,3 km/h (3 Bft) 100,00 %
15.01.2026 20:00 9,4 °C 8,9 °C 5,6 °C 88 % 1008,9 hPa 0,0 l/m² 0 min 0 min 0 W/m² 22,5 km/h (4 Bft) 100,00 %
15.01.2026 20:02 9,4 °C 8,9 °C 5,6 °C 88 % 1008,8 hPa 0,0 l/m² 0 min 0 min 0 W/m² 12,9 km/h (3 Bft) 100,00 %
15.01.2026 20:04 9,4 °C 8,9 °C 5,0 °C 88 % 1008,9 hPa 0,0 l/m² 0 min 0 min 0 W/m² 19,3 km/h (3 Bft) 98,04 %
15.01.2026 20:08 9,5 °C 8,9 °C 5,6 °C 88 % 1008,8 hPa 0,0 l/m² 0 min 0 min 0 W/m² 25,7 km/h (4 Bft) 100,00 %
15.01.2026 20:10 9,5 °C 8,9 °C 5,6 °C 88 % 1008,8 hPa 0,0 l/m² 0 min 0 min 0 W/m² 25,7 km/h (4 Bft) 100,00 %
15.01.2026 20:12 9,5 °C 8,9 °C 5,0 °C 88 % 1008,8 hPa 0,0 l/m² 0 min 0 min 0 W/m² 12,9 km/h (3 Bft) 100,00 %
15.01.2026 20:14 9,5 °C 8,9 °C 5,0 °C 88 % 1008,8 hPa 0,0 l/m² 0 min 0 min 0 W/m² 29,0 km/h (5 Bft) 100,00 %
15.01.2026 20:16 9,5 °C 8,9 °C 5,0 °C 88 % 1008,7 hPa 0,0 l/m² 0 min 0 min 0 W/m² 19,3 km/h (3 Bft) 100,00 %
15.01.2026 20:18 9,5 °C 8,9 °C 5,6 °C 87 % 1008,7 hPa 0,0 l/m² 0 min 0 min 0 W/m² 25,7 km/h (4 Bft) 100,00 %
15.01.2026 20:20 9,5 °C 8,9 °C 5,6 °C 87 % 1008,7 hPa 0,0 l/m² 0 min 0 min 0 W/m² 22,5 km/h (4 Bft) 97,37 %
15.01.2026 20:22 9,5 °C 8,9 °C 5,6 °C 87 % 1008,7 hPa 0,0 l/m² 0 min 0 min 0 W/m² 25,7 km/h (4 Bft) 98,18 %
15.01.2026 20:24 9,5 °C 8,9 °C 5,6 °C 87 % 1008,7 hPa 0,0 l/m² 0 min 0 min 0 W/m² 19,3 km/h (3 Bft) 100,00 %
15.01.2026 20:26 9,5 °C 8,9 °C 5,6 °C 87 % 1008,7 hPa 0,0 l/m² 0 min 0 min 0 W/m² 25,7 km/h (4 Bft) 100,00 %
15.01.2026 20:28 9,6 °C 8,9 °C 5,0 °C 87 % 1008,7 hPa 0,0 l/m² 0 min 0 min 0 W/m² 12,9 km/h (3 Bft) 95,92 %
15.01.2026 20:30 9,5 °C 8,9 °C 5,6 °C 87 % 1008,7 hPa 0,0 l/m² 0 min 0 min 0 W/m² 29,0 km/h (5 Bft) 100,00 %
15.01.2026 20:32 9,5 °C 8,9 °C 5,0 °C 87 % 1008,8 hPa 0,0 l/m² 0 min 0 min 0 W/m² 22,5 km/h (4 Bft) 100,00 %
15.01.2026 20:34 9,5 °C 8,9 °C 5,0 °C 87 % 1008,8 hPa 0,0 l/m² 0 min 0 min 0 W/m² 16,1 km/h (3 Bft) 98,31 %
15.01.2026 20:36 9,5 °C 8,9 °C 5,0 °C 87 % 1008,8 hPa 0,0 l/m² 0 min 0 min 0 W/m² 16,1 km/h (3 Bft) 97,62 %
15.01.2026 20:38 9,5 °C 8,9 °C 5,0 °C 87 % 1008,8 hPa 0,0 l/m² 0 min 0 min 0 W/m² 22,5 km/h (4 Bft) 97,96 %
15.01.2026 20:40 9,5 °C 8,9 °C 5,0 °C 87 % 1008,7 hPa 0,0 l/m² 0 min 0 min 0 W/m² 16,1 km/h (3 Bft) 97,30 %
15.01.2026 20:42 9,5 °C 8,9 °C 5,0 °C 87 % 1008,7 hPa 0,0 l/m² 0 min 0 min 0 W/m² 22,5 km/h (4 Bft) 100,00 %
15.01.2026 20:44 9,4 °C 8,9 °C 5,0 °C 87 % 1008,7 hPa 0,0 l/m² 0 min 0 min 0 W/m² 22,5 km/h (4 Bft) 96,08 %
15.01.2026 20:46 9,4 °C 8,9 °C 5,0 °C 87 % 1008,7 hPa 0,0 l/m² 0 min 0 min 0 W/m² 22,5 km/h (4 Bft) 95,45 %
15.01.2026 20:48 9,4 °C 8,9 °C 5,0 °C 87 % 1008,7 hPa 0,0 l/m² 0 min 0 min 0 W/m² 32,2 km/h (5 Bft) 93,33 %
15.01.2026 20:50 9,5 °C 8,9 °C 5,0 °C 87 % 1008,7 hPa 0,0 l/m² 0 min 0 min 0 W/m² 25,7 km/h (4 Bft) 95,00 %
15.01.2026 20:52 9,5 °C 8,9 °C 5,0 °C 87 % 1008,7 hPa 0,0 l/m² 0 min 0 min 0 W/m² 25,7 km/h (4 Bft) 94,83 %
15.01.2026 20:54 9,4 °C 8,9 °C 5,0 °C 87 % 1008,7 hPa 0,0 l/m² 0 min 0 min 0 W/m² 25,7 km/h (4 Bft) 97,14 %
15.01.2026 20:56 9,5 °C 8,9 °C 5,0 °C 87 % 1008,7 hPa 0,0 l/m² 0 min 0 min 0 W/m² 25,7 km/h (4 Bft) 94,92 %
15.01.2026 20:58 9,5 °C 8,9 °C 5,0 °C 87 % 1008,7 hPa 0,0 l/m² 0 min 0 min 0 W/m² 25,7 km/h (4 Bft) 95,56 %
15.01.2026 21:00 9,5 °C 8,9 °C 5,0 °C 87 % 1008,7 hPa 0,0 l/m² 0 min 0 min 0 W/m² 25,7 km/h (4 Bft) 94,59 %
15.01.2026 21:02 9,5 °C 8,9 °C 5,0 °C 87 % 1008,7 hPa 0,0 l/m² 0 min 0 min 0 W/m² 22,5 km/h (4 Bft) 92,45 %
15.01.2026 21:04 9,5 °C 8,9 °C 5,0 °C 87 % 1008,7 hPa 0,0 l/m² 0 min 0 min 0 W/m² 22,5 km/h (4 Bft) 95,92 %
15.01.2026 21:06 9,4 °C 8,9 °C 5,0 °C 87 % 1008,7 hPa 0,0 l/m² 0 min 0 min 0 W/m² 22,5 km/h (4 Bft) 97,83 %
15.01.2026 21:08 9,5 °C 8,9 °C 5,0 °C 87 % 1008,6 hPa 0,0 l/m² 0 min 0 min 0 W/m² 22,5 km/h (4 Bft) 100,00 %
15.01.2026 21:10 9,4 °C 8,9 °C 5,0 °C 87 % 1008,6 hPa 0,0 l/m² 0 min 0 min 0 W/m² 16,1 km/h (3 Bft) 95,83 %
15.01.2026 21:12 9,4 °C 8,9 °C 5,0 °C 87 % 1008,6 hPa 0,0 l/m² 0 min 0 min 0 W/m² 19,3 km/h (3 Bft) 97,92 %
15.01.2026 21:14 9,4 °C 8,9 °C 5,0 °C 87 % 1008,6 hPa 0,0 l/m² 0 min 0 min 0 W/m² 19,3 km/h (3 Bft) 97,73 %
15.01.2026 21:16 9,4 °C 8,9 °C 5,0 °C 87 % 1008,6 hPa 0,0 l/m² 0 min 0 min 0 W/m² 25,7 km/h (4 Bft) 97,92 %
15.01.2026 21:18 9,4 °C 8,9 °C 5,0 °C 87 % 1008,6 hPa 0,0 l/m² 0 min 0 min 0 W/m² 22,5 km/h (4 Bft) 97,37 %
15.01.2026 21:20 9,4 °C 8,9 °C 5,0 °C 87 % 1008,5 hPa 0,0 l/m² 0 min 0 min 0 W/m² 22,5 km/h (4 Bft) 96,30 %
15.01.2026 21:22 9,4 °C 8,9 °C 5,0 °C 87 % 1008,5 hPa 0,0 l/m² 0 min 0 min 0 W/m² 22,5 km/h (4 Bft) 97,50 %
15.01.2026 21:24 9,4 °C 8,9 °C 5,0 °C 87 % 1008,5 hPa 0,0 l/m² 0 min 0 min 0 W/m² 22,5 km/h (4 Bft) 98,15 %
15.01.2026 21:26 9,4 °C 8,3 °C 5,0 °C 87 % 1008,5 hPa 0,0 l/m² 0 min 0 min 0 W/m² 16,1 km/h (3 Bft) 97,44 %
15.01.2026 21:28 9,4 °C 8,3 °C 5,0 °C 87 % 1008,5 hPa 0,0 l/m² 0 min 0 min 0 W/m² 19,3 km/h (3 Bft) 98,18 %
15.01.2026 21:30 9,4 °C 8,3 °C 5,0 °C 87 % 1008,4 hPa 0,0 l/m² 0 min 0 min 0 W/m² 16,1 km/h (3 Bft) 95,92 %
15.01.2026 21:32 9,3 °C 8,3 °C 5,0 °C 87 % 1008,4 hPa 0,0 l/m² 0 min 0 min 0 W/m² 12,9 km/h (3 Bft) 97,30 %
15.01.2026 21:34 9,3 °C 8,3 °C 5,0 °C 87 % 1008,4 hPa 0,0 l/m² 0 min 0 min 0 W/m² 22,5 km/h (4 Bft) 97,87 %
15.01.2026 21:36 9,3 °C 8,3 °C 5,0 °C 87 % 1008,4 hPa 0,0 l/m² 0 min 0 min 0 W/m² 16,1 km/h (3 Bft) 97,87 %
15.01.2026 21:38 9,3 °C 8,3 °C 5,0 °C 87 % 1008,4 hPa 0,0 l/m² 0 min 0 min 0 W/m² 16,1 km/h (3 Bft) 96,36 %
15.01.2026 21:40 9,3 °C 8,3 °C 5,0 °C 87 % 1008,5 hPa 0,0 l/m² 0 min 0 min 0 W/m² 19,3 km/h (3 Bft) 97,37 %
15.01.2026 21:42 9,3 °C 8,3 °C 5,0 °C 88 % 1008,5 hPa 0,0 l/m² 0 min 0 min 0 W/m² 22,5 km/h (4 Bft) 95,74 %
15.01.2026 21:44 9,2 °C 8,3 °C 5,0 °C 88 % 1008,4 hPa 0,0 l/m² 0 min 0 min 0 W/m² 19,3 km/h (3 Bft) 96,43 %
15.01.2026 21:46 9,2 °C 8,3 °C 5,0 °C 88 % 1008,5 hPa 0,0 l/m² 0 min 0 min 0 W/m² 19,3 km/h (3 Bft) 94,74 %
15.01.2026 21:48 9,2 °C 8,3 °C 5,0 °C 88 % 1008,5 hPa 0,0 l/m² 0 min 0 min 0 W/m² 19,3 km/h (3 Bft) 98,00 %
15.01.2026 21:50 9,2 °C 8,3 °C 5,0 °C 88 % 1008,5 hPa 0,0 l/m² 0 min 0 min 0 W/m² 22,5 km/h (4 Bft) 98,11 %
15.01.2026 21:52 9,2 °C 8,3 °C 5,0 °C 88 % 1008,5 hPa 0,0 l/m² 0 min 0 min 0 W/m² 22,5 km/h (4 Bft) 95,74 %
15.01.2026 21:54 9,2 °C 8,3 °C 5,0 °C 88 % 1008,5 hPa 0,0 l/m² 0 min 0 min 0 W/m² 22,5 km/h (4 Bft) 97,30 %
15.01.2026 21:56 9,2 °C 8,3 °C 5,0 °C 88 % 1008,5 hPa 0,0 l/m² 0 min 0 min 0 W/m² 32,2 km/h (5 Bft) 96,00 %
15.01.2026 21:58 9,2 °C 8,9 °C 5,0 °C 88 % 1008,5 hPa 0,0 l/m² 0 min 0 min 0 W/m² 22,5 km/h (4 Bft) 95,74 %
15.01.2026 22:00 9,2 °C 8,3 °C 5,0 °C 88 % 1008,5 hPa 0,0 l/m² 0 min 0 min 0 W/m² 22,5 km/h (4 Bft) 97,87 %
15.01.2026 22:02 9,3 °C 8,3 °C 5,0 °C 88 % 1008,4 hPa 0,0 l/m² 0 min 0 min 0 W/m² 22,5 km/h (4 Bft) 95,65 %
15.01.2026 22:04 9,3 °C 8,3 °C 5,0 °C 88 % 1008,4 hPa 0,0 l/m² 0 min 0 min 0 W/m² 19,3 km/h (3 Bft) 97,87 %
15.01.2026 22:06 9,3 °C 8,3 °C 5,0 °C 88 % 1008,5 hPa 0,0 l/m² 0 min 0 min 0 W/m² 29,0 km/h (5 Bft) 97,87 %
15.01.2026 22:08 9,3 °C 8,3 °C 5,0 °C 88 % 1008,4 hPa 0,0 l/m² 0 min 0 min 0 W/m² 29,0 km/h (5 Bft) 96,30 %
15.01.2026 22:10 9,3 °C 8,9 °C 5,0 °C 88 % 1008,4 hPa 0,0 l/m² 0 min 0 min 0 W/m² 22,5 km/h (4 Bft) 100,00 %
15.01.2026 22:12 9,3 °C 8,9 °C 5,0 °C 88 % 1008,5 hPa 0,0 l/m² 0 min 0 min 0 W/m² 29,0 km/h (5 Bft) 95,74 %
15.01.2026 22:14 9,3 °C 8,9 °C 5,0 °C 88 % 1008,4 hPa 0,0 l/m² 0 min 0 min 0 W/m² 25,7 km/h (4 Bft) 97,83 %
15.01.2026 22:16 9,3 °C 8,3 °C 5,0 °C 88 % 1008,3 hPa 0,0 l/m² 0 min 0 min 0 W/m² 22,5 km/h (4 Bft) 95,74 %
15.01.2026 22:18 9,3 °C 8,3 °C 5,0 °C 88 % 1008,3 hPa 0,0 l/m² 0 min 0 min 0 W/m² 16,1 km/h (3 Bft) 97,83 %
15.01.2026 22:20 9,3 °C 8,3 °C 5,0 °C 88 % 1008,3 hPa 0,0 l/m² 0 min 0 min 0 W/m² 29,0 km/h (5 Bft) 97,87 %
15.01.2026 22:22 9,3 °C 8,3 °C 5,0 °C 88 % 1008,3 hPa 0,0 l/m² 0 min 0 min 0 W/m² 25,7 km/h (4 Bft) 95,65 %
15.01.2026 22:24 9,3 °C 8,3 °C 5,0 °C 88 % 1008,2 hPa 0,0 l/m² 0 min 0 min 0 W/m² 32,2 km/h (5 Bft) 95,83 %
15.01.2026 22:26 9,3 °C 8,3 °C 5,0 °C 88 % 1008,2 hPa 0,0 l/m² 0 min 0 min 0 W/m² 22,5 km/h (4 Bft) 95,74 %
15.01.2026 22:28 9,3 °C 8,3 °C 5,0 °C 88 % 1008,2 hPa 0,0 l/m² 0 min 0 min 0 W/m² 25,7 km/h (4 Bft) 97,92 %
15.01.2026 22:30 9,3 °C 8,3 °C 5,0 °C 88 % 1008,2 hPa 0,0 l/m² 0 min 0 min 0 W/m² 22,5 km/h (4 Bft) 97,96 %
15.01.2026 22:32 9,3 °C 8,3 °C 5,0 °C 88 % 1008,2 hPa 0,0 l/m² 0 min 0 min 0 W/m² 22,5 km/h (4 Bft) 97,87 %
15.01.2026 22:34 9,3 °C 8,3 °C 5,0 °C 88 % 1008,2 hPa 0,0 l/m² 0 min 0 min 0 W/m² 19,3 km/h (3 Bft) 97,87 %
15.01.2026 22:36 9,3 °C 8,3 °C 5,0 °C 88 % 1008,2 hPa 0,0 l/m² 0 min 0 min 0 W/m² 29,0 km/h (5 Bft) 97,83 %
15.01.2026 22:38 9,3 °C 8,3 °C 5,0 °C 89 % 1008,1 hPa 0,0 l/m² 0 min 0 min 0 W/m² 19,3 km/h (3 Bft) 97,62 %
15.01.2026 22:40 9,3 °C 8,3 °C 5,0 °C 89 % 1008,1 hPa 0,0 l/m² 0 min 0 min 0 W/m² 19,3 km/h (3 Bft) 98,00 %
15.01.2026 22:42 9,3 °C 8,3 °C 5,0 °C 88 % 1008,1 hPa 0,0 l/m² 0 min 0 min 0 W/m² 19,3 km/h (3 Bft) 97,87 %
15.01.2026 22:44 9,3 °C 8,3 °C 5,0 °C 88 % 1008,1 hPa 0,0 l/m² 0 min 0 min 0 W/m² 16,1 km/h (3 Bft) 97,96 %
15.01.2026 22:46 9,3 °C 8,3 °C 5,0 °C 88 % 1008,0 hPa 0,0 l/m² 0 min 0 min 0 W/m² 16,1 km/h (3 Bft) 97,92 %
15.01.2026 22:48 9,2 °C 8,3 °C 5,0 °C 89 % 1008,0 hPa 0,0 l/m² 0 min 0 min 0 W/m² 16,1 km/h (3 Bft) 97,92 %
15.01.2026 22:50 9,2 °C 8,3 °C 5,0 °C 89 % 1008,0 hPa 0,0 l/m² 0 min 0 min 0 W/m² 25,7 km/h (4 Bft) 97,14 %
15.01.2026 22:52 9,2 °C 8,3 °C 5,0 °C 89 % 1008,0 hPa 0,0 l/m² 0 min 0 min 0 W/m² 22,5 km/h (4 Bft) 98,15 %
15.01.2026 22:54 9,3 °C 8,3 °C 5,0 °C 89 % 1007,9 hPa 0,0 l/m² 0 min 0 min 0 W/m² 25,7 km/h (4 Bft) 97,92 %
15.01.2026 22:56 9,2 °C 8,3 °C 5,0 °C 89 % 1008,0 hPa 0,0 l/m² 0 min 0 min 0 W/m² 19,3 km/h (3 Bft) 97,92 %
15.01.2026 22:58 9,3 °C 8,3 °C 5,0 °C 89 % 1008,0 hPa 0,0 l/m² 0 min 0 min 0 W/m² 29,0 km/h (5 Bft) 97,96 %
15.01.2026 23:00 9,3 °C 8,3 °C 5,0 °C 89 % 1008,0 hPa 0,0 l/m² 0 min 0 min 0 W/m² 22,5 km/h (4 Bft) 97,87 %
15.01.2026 23:02 9,3 °C 8,3 °C 5,0 °C 89 % 1007,9 hPa 0,0 l/m² 0 min 0 min 0 W/m² 25,7 km/h (4 Bft) 95,74 %
15.01.2026 23:04 9,3 °C 8,3 °C 5,0 °C 89 % 1007,9 hPa 0,0 l/m² 0 min 0 min 0 W/m² 19,3 km/h (3 Bft) 100,00 %
15.01.2026 23:06 9,3 °C 8,3 °C 5,0 °C 89 % 1007,9 hPa 0,0 l/m² 0 min 0 min 0 W/m² 19,3 km/h (3 Bft) 100,00 %
15.01.2026 23:08 9,3 °C 8,3 °C 5,0 °C 89 % 1007,9 hPa 0,0 l/m² 0 min 0 min 0 W/m² 25,7 km/h (4 Bft) 95,24 %
15.01.2026 23:10 9,3 °C 8,3 °C 5,0 °C 89 % 1007,9 hPa 0,0 l/m² 0 min 0 min 0 W/m² 22,5 km/h (4 Bft) 100,00 %
15.01.2026 23:12 9,3 °C 8,3 °C 5,0 °C 89 % 1007,9 hPa 0,0 l/m² 0 min 0 min 0 W/m² 22,5 km/h (4 Bft) 100,00 %
15.01.2026 23:14 9,2 °C 8,3 °C 5,0 °C 89 % 1007,9 hPa 0,0 l/m² 0 min 0 min 0 W/m² 16,1 km/h (3 Bft) 97,92 %
15.01.2026 23:16 9,2 °C 8,3 °C 5,0 °C 89 % 1007,9 hPa 0,0 l/m² 0 min 0 min 0 W/m² 16,1 km/h (3 Bft) 100,00 %
15.01.2026 23:18 9,2 °C 8,3 °C 5,0 °C 89 % 1007,8 hPa 0,0 l/m² 0 min 0 min 0 W/m² 19,3 km/h (3 Bft) 100,00 %
15.01.2026 23:20 9,2 °C 8,3 °C 5,0 °C 89 % 1007,8 hPa 0,0 l/m² 0 min 0 min 0 W/m² 25,7 km/h (4 Bft) 97,87 %
15.01.2026 23:22 9,2 °C 8,3 °C 5,0 °C 89 % 1007,8 hPa 0,0 l/m² 0 min 0 min 0 W/m² 19,3 km/h (3 Bft) 100,00 %
15.01.2026 23:24 9,2 °C 8,3 °C 5,0 °C 89 % 1007,8 hPa 0,0 l/m² 0 min 0 min 0 W/m² 25,7 km/h (4 Bft) 100,00 %
15.01.2026 23:26 9,2 °C 8,3 °C 5,0 °C 89 % 1007,8 hPa 0,0 l/m² 0 min 0 min 0 W/m² 22,5 km/h (4 Bft) 97,83 %
15.01.2026 23:28 9,2 °C 8,3 °C 5,0 °C 89 % 1007,8 hPa 0,0 l/m² 0 min 0 min 0 W/m² 19,3 km/h (3 Bft) 100,00 %
15.01.2026 23:30 9,2 °C 8,3 °C 5,0 °C 89 % 1007,8 hPa 0,0 l/m² 0 min 0 min 0 W/m² 19,3 km/h (3 Bft) 100,00 %
15.01.2026 23:32 9,2 °C 8,3 °C 5,0 °C 89 % 1007,8 hPa 0,0 l/m² 0 min 0 min 0 W/m² 22,5 km/h (4 Bft) 97,87 %
15.01.2026 23:34 9,2 °C 8,3 °C 5,0 °C 89 % 1007,7 hPa 0,0 l/m² 0 min 0 min 0 W/m² 16,1 km/h (3 Bft) 100,00 %
15.01.2026 23:36 9,2 °C 8,3 °C 5,0 °C 89 % 1007,8 hPa 0,0 l/m² 0 min 0 min 0 W/m² 16,1 km/h (3 Bft) 97,83 %
15.01.2026 23:38 9,2 °C 8,3 °C 5,0 °C 89 % 1007,8 hPa 0,0 l/m² 0 min 0 min 0 W/m² 29,0 km/h (5 Bft) 97,44 %
15.01.2026 23:40 9,2 °C 8,3 °C 5,0 °C 89 % 1007,8 hPa 0,0 l/m² 0 min 0 min 0 W/m² 25,7 km/h (4 Bft) 100,00 %
15.01.2026 23:42 9,2 °C 8,3 °C 5,0 °C 89 % 1007,8 hPa 0,0 l/m² 0 min 0 min 0 W/m² 16,1 km/h (3 Bft) 100,00 %
15.01.2026 23:44 9,2 °C 8,3 °C 5,0 °C 89 % 1007,8 hPa 0,0 l/m² 0 min 0 min 0 W/m² 29,0 km/h (5 Bft) 95,65 %
15.01.2026 23:46 9,2 °C 8,3 °C 5,0 °C 89 % 1007,8 hPa 0,0 l/m² 0 min 0 min 0 W/m² 16,1 km/h (3 Bft) 95,65 %
15.01.2026 23:48 9,2 °C 8,3 °C 5,0 °C 89 % 1007,8 hPa 0,0 l/m² 0 min 0 min 0 W/m² 16,1 km/h (3 Bft) 97,83 %
15.01.2026 23:50 9,2 °C 8,3 °C 5,0 °C 89 % 1007,7 hPa 0,0 l/m² 0 min 0 min 0 W/m² 29,0 km/h (5 Bft) 95,56 %
15.01.2026 23:52 9,2 °C 8,3 °C 5,0 °C 89 % 1007,7 hPa 0,0 l/m² 0 min 0 min 0 W/m² 22,5 km/h (4 Bft) 97,44 %
15.01.2026 23:54 9,2 °C 8,3 °C 5,0 °C 89 % 1007,6 hPa 0,0 l/m² 0 min 0 min 0 W/m² 19,3 km/h (3 Bft) 97,87 %
15.01.2026 23:56 9,2 °C 8,3 °C 5,0 °C 89 % 1007,5 hPa 0,0 l/m² 0 min 0 min 0 W/m² 16,1 km/h (3 Bft) 94,92 %
15.01.2026 23:58 9,2 °C 8,3 °C 5,0 °C 89 % 1007,5 hPa 0,0 l/m² 0 min 0 min 0 W/m² 22,5 km/h (4 Bft) 95,65 %
_ Min-Zeit 07:32 07:26 00:00 16:56 23:56 - - - - 02:16 10:02
Minimum _ 7,1 °C 6,1 °C 3,9 °C 82 % 1007,5 hPa - - - - 3,2 km/h (1 Bft) 41,67 %
_ Max-Zeit 13:28 12:30 12:18 00:00 00:00 00:00 00:00 00:00 12:40 13:20 00:16
Maximum _ 10,8 °C 11,1 °C 7,2 °C 100 % 1013,2 hPa 0,0 l/m² 0 min 0 min 148 W/m² 35,4 km/h
S (5 Bft)
100,00 %
Durchschnitt _ 8,8 °C 8,4 °C 5,3 °C 94 % 1010,5 hPa #0,0 l/m² #0 min. #0 min. 42 W/m² 14,6 km/h (3 Bft) 97,14 %
© 2026 W. Hausmann